EW7307 Weather Reports


Display with metric or nautical units.
time (UTC)temp
F
wind
direction
speed
MPH
gust
MPH
rain 1hr
in
rain 24hr
in
rain mn
in
humidity
%
barometer
mb
20260507140216 67 74 5.0 9.0 0.00 0.31 0.00 54 1011.6
20260507140132 68 339 4.0 9.0 0.00 0.31 0.00 57 1011.6
20260507135652 68 51 4.0 9.0 0.00 0.31 0.00 54 1011.7
20260507135640 67 93 3.0 9.0 0.00 0.31 0.00 60 1012.1
20260507135550 69 57 3.0 9.0 0.00 0.31 0.00 58 1011.7
20260507135449 69 51 6.0 9.0 0.00 0.31 0.00 57 1011.6
20260507135351 68 80 6.0 9.0 0.00 0.31 0.00 60 1011.6
20260507135309 69 126 4.0 8.0 0.00 0.31 0.00 55 1011.7
20260507135230 69 93 4.0 7.0 0.00 0.31 0.00 57 1011.7
20260507134944 68 115 3.0 7.0 0.00 0.31 0.00 55 1011.7
20260507134855 68 138 3.0 7.0 0.00 0.31 0.00 56 1011.7
20260507134813 68 139 3.0 7.0 0.00 0.31 0.00 54 1011.7
20260507134734 68 51 4.0 7.0 0.00 0.31 0.00 58 1011.7
20260507134540 68 67 3.0 7.0 0.00 0.31 0.00 57 1011.7
20260507134437 68 63 2.0 7.0 0.00 0.31 0.00 57 1011.7
20260507134406 67 131 4.0 10.0 0.00 0.31 0.00 57 1012.2
20260507134338 68 80 2.0 6.0 0.00 0.31 0.00 58 1011.7
20260507134237 67 298 2.0 6.0 0.00 0.31 0.00 52 1011.7
20260507134136 67 309 2.0 6.0 0.00 0.31 0.00 52 1011.7
20260507134118 67 62 5.0 10.0 0.00 0.31 0.00 61 1012.1
20260507134036 68 247 2.0 6.0 0.00 0.31 0.00 52 1011.8
20260507133944 66 137 2.0 8.0 0.00 0.31 0.00 58 1012.2
20260507133931 68 169 3.0 6.0 0.00 0.31 0.00 54 1011.8
20260507133833 68 190 3.0 6.0 0.00 0.31 0.00 54 1011.8
20260507133753 68 171 3.0 6.0 0.00 0.31 0.00 60 1011.8
20260507133710 68 200 2.0 6.0 0.00 0.31 0.00 55 1011.8
20260507133626 67 186 1.0 6.0 0.00 0.31 0.00 58 1011.9
20260507133427 67 126 2.0 6.0 0.00 0.31 0.00 55 1011.9
20260507133416 67 24 2.0 7.0 0.00 0.31 0.00 60 1012.2
20260507133350 66 41 2.0 7.0 0.00 0.31 0.00 62 1012.2
20260507133329 67 193 4.0 6.0 0.00 0.31 0.00 56 1012.0
20260507133249 67 183 3.0 6.0 0.00 0.31 0.00 56 1012.0
20260507133207 67 219 3.0 6.0 0.00 0.31 0.00 56 1012.0
20260507132936 67 146 2.0 9.0 0.00 0.31 0.00 56 1012.0
20260507132854 67 93 3.0 9.0 0.00 0.31 0.00 59 1012.0
20260507132814 67 108 3.0 9.0 0.00 0.31 0.00 61 1012.0
20260507132549 67 86 2.0 9.0 0.00 0.31 0.00 60 1012.1
20260507132505 67 76 2.0 9.0 0.00 0.31 0.00 63 1012.1
20260507132423 66 34 4.0 9.0 0.00 0.31 0.00 60 1012.0
20260507132343 66 346 5.0 9.0 0.00 0.31 0.00 59 1012.1
20260507132301 66 346 5.0 9.0 0.00 0.31 0.00 59 1012.1
20260507132216 66 48 5.0 9.0 0.00 0.31 0.00 60 1012.2
20260507132132 67 57 5.0 9.0 0.00 0.31 0.00 58 1012.1
20260507132050 67 65 3.0 9.0 0.00 0.31 0.00 62 1012.2
20260507131833 67 30 4.0 10.0 0.00 0.31 0.00 60 1012.2
20260507131745 67 45 5.0 10.0 0.00 0.31 0.00 61 1012.2
20260507131521 67 74 2.0 10.0 0.00 0.31 0.00 60 1012.2
20260507131441 67 328 2.0 10.0 0.00 0.31 0.00 60 1012.2
20260507131359 67 319 3.0 10.0 0.00 0.31 0.00 60 1012.2
20260507131313 67 93 6.0 10.0 0.00 0.31 0.00 59 1012.1
20260507131231 67 50 7.0 10.0 0.00 0.31 0.00 63 1012.2
20260507130956 67 30 2.0 8.0 0.00 0.31 0.00 58 1012.1
20260507130901 67 59 1.0 8.0 0.00 0.31 0.00 57 1012.2
20260507130620 66 309 4.0 8.0 0.00 0.31 0.00 58 1012.2
20260507125945 66 344 2.0 7.0 0.00 0.31 0.00 59 1012.2
20260507125845 66 59 2.0 7.0 0.00 0.31 0.00 58 1012.3
20260507125742 66 142 3.0 7.0 0.00 0.31 0.00 60 1012.3
20260507125641 66 313 4.0 7.0 0.00 0.31 0.00 60 1012.3
20260507125541 66 22 4.0 7.0 0.00 0.31 0.00 58 1012.3
20260507125439 66 34 4.0 7.0 0.00 0.31 0.00 59 1012.3
20260507125421 66 88 2.0 11.0 0.00 0.31 0.00 63 1012.4
20260507125353 66 41 4.0 7.0 0.00 0.31 0.00 59 1012.3
20260507125313 67 36 4.0 6.0 0.00 0.31 0.00 62 1012.3
20260507125231 66 69 3.0 9.0 0.00 0.31 0.00 63 1012.4
20260507124936 66 126 3.0 11.0 0.00 0.31 0.00 61 1012.4
20260507124914 60 108 5.0 9.0 0.00 0.31 0.00 74 1013.7
20260507124834 66 48 3.0 11.0 0.00 0.31 0.00 63 1012.4
20260507124732 66 102 2.0 11.0 0.00 0.31 0.00 61 1012.4
20260507124631 66 72 3.0 11.0 0.00 0.31 0.00 62 1012.4
20260507124532 66 61 4.0 11.0 0.00 0.31 0.00 62 1012.4
20260507124428 66 44 4.0 11.0 0.00 0.31 0.00 61 1012.4
20260507124327 66 63 7.0 11.0 0.00 0.31 0.00 61 1012.4
20260507124247 66 9 4.0 9.0 0.00 0.31 0.00 60 1012.4
20260507124231 66 97 8.0 11.0 0.00 0.31 0.00 62 1012.4
20260507124149 66 105 6.0 11.0 0.00 0.31 0.00 65 1012.3
20260507124106 66 34 5.0 9.0 0.00 0.31 0.00 60 1012.3
20260507123821 67 41 3.0 9.0 0.00 0.31 0.00 58 1012.4
20260507123734 67 39 2.0 9.0 0.00 0.31 0.00 62 1012.4
20260507123619 67 109 4.0 9.0 0.00 0.31 0.00 64 1012.4
20260507123521 67 119 4.0 9.0 0.00 0.31 0.00 60 1012.4
20260507123433 67 71 4.0 8.0 0.00 0.31 0.00 61 1012.5
20260507123418 67 126 3.0 9.0 0.00 0.31 0.00 64 1012.5
20260507123317 66 93 3.0 9.0 0.00 0.31 0.00 65 1012.5
20260507123237 66 178 5.0 9.0 0.00 0.31 0.00 59 1012.5
20260507123155 66 110 6.0 9.0 0.00 0.31 0.00 58 1012.5
20260507122929 66 173 3.0 8.0 0.00 0.31 0.00 61 1012.5
20260507122912 67 87 3.0 8.0 0.00 0.31 0.00 64 1012.5
20260507122830 66 100 4.0 8.0 0.00 0.31 0.00 60 1012.5
20260507122746 66 126 4.0 8.0 0.00 0.31 0.00 61 1012.5
20260507122506 66 221 4.0 8.0 0.00 0.31 0.00 64 1012.6
20260507122406 66 111 5.0 8.0 0.00 0.31 0.00 64 1012.6
20260507122307 66 54 5.0 9.0 0.00 0.31 0.00 62 1012.6
20260507122238 65 205 4.0 9.0 0.00 0.31 0.00 61 1012.6
20260507122205 66 101 4.0 9.0 0.00 0.31 0.00 62 1012.5
20260507122104 66 123 3.0 9.0 0.00 0.31 0.00 63 1012.6
20260507122018 65 111 3.0 9.0 0.00 0.31 0.00 65 1012.6
20260507121936 65 72 3.0 9.0 0.00 0.31 0.00 63 1012.6
20260507121732 65 74 3.0 10.0 0.00 0.31 0.00 64 1012.7
20260507121659 65 133 4.0 10.0 0.00 0.31 0.00 63 1012.6
20260507121617 65 103 4.0 10.0 0.00 0.31 0.00 62 1012.6
20260507121532 65 134 4.0 10.0 0.00 0.31 0.00 64 1012.7
20260507121248 65 90 2.0 10.0 0.00 0.31 0.00 63 1012.8
20260507121147 64 98 3.0 10.0 0.00 0.31 0.00 61 1012.7
20260507121046 65 17 4.0 10.0 0.00 0.31 0.00 65 1012.8
20260507120946 64 74 6.0 10.0 0.00 0.31 0.00 63 1012.7
20260507120843 65 75 6.0 10.0 0.00 0.31 0.00 61 1012.8
20260507120743 64 88 3.0 10.0 0.00 0.31 0.00 64 1012.8
20260507120640 64 67 2.0 8.0 0.00 0.31 0.00 63 1012.8
20260507120540 64 93 3.0 8.0 0.00 0.31 0.00 61 1012.8
20260507120500 65 63 5.0 8.0 0.00 0.31 0.00 66 1012.9
20260507120433 64 298 3.0 8.0 0.00 0.31 0.00 61 1012.8
20260507120351 64 312 4.0 8.0 0.00 0.31 0.00 64 1012.9
20260507120309 64 105 5.0 8.0 0.00 0.31 0.00 63 1012.9
20260507120027 65 65 4.0 8.0 0.00 0.31 0.00 66 1012.9
20260507115928 64 334 3.0 5.0 0.00 0.31 0.00 65 1012.9
20260507115825 64 30 2.0 5.0 0.00 0.31 0.00 65 1012.9
20260507115724 64 67 2.0 8.0 0.00 0.31 0.00 62 1013.0
20260507115623 64 137 2.0 8.0 0.00 0.31 0.00 60 1012.9
20260507115525 64 144 1.0 8.0 0.00 0.31 0.00 64 1013.0
20260507115423 64 209 1.0 8.0 0.00 0.31 0.00 60 1013.0
20260507115319 64 221 1.0 8.0 0.00 0.31 0.00 63 1013.0
20260507115218 64 282 1.0 8.0 0.00 0.31 0.00 61 1013.0
20260507115118 64 265 2.0 8.0 0.00 0.31 0.00 61 1013.0
20260507115014 64 51 3.0 8.0 0.00 0.31 0.00 63 1013.0
20260507114914 64 117 5.0 8.0 0.00 0.31 0.00 62 1013.0
20260507114813 64 123 5.0 8.0 0.00 0.31 0.00 62 1013.0
20260507114758 64 134 4.0 9.0 0.00 0.31 0.00 63 1013.0
20260507114714 64 102 5.0 8.0 0.00 0.31 0.00 67 1013.0
20260507114627 64 108 5.0 8.0 0.00 0.31 0.00 64 1013.0
20260507114544 64 135 4.0 8.0 0.00 0.31 0.00 62 1013.0
20260507114458 64 129 3.0 9.0 0.00 0.31 0.00 62 1013.1
20260507114312 64 144 3.0 9.0 0.00 0.31 0.00 63 1013.1
20260507114231 64 153 4.0 9.0 0.00 0.31 0.00 63 1013.1
20260507114149 64 113 4.0 9.0 0.00 0.31 0.00 64 1013.1
20260507113921 64 138 5.0 9.0 0.00 0.31 0.00 64 1013.1
20260507113841 64 116 4.0 9.0 0.00 0.31 0.00 68 1013.2
20260507113559 64 51 4.0 9.0 0.00 0.31 0.00 66 1013.1
20260507113500 64 121 2.0 9.0 0.00 0.31 0.00 64 1013.1
20260507113357 64 61 2.0 6.0 0.00 0.31 0.00 62 1013.2
20260507113257 64 137 3.0 6.0 0.00 0.31 0.00 64 1013.2
20260507113154 64 265 4.0 6.0 0.00 0.31 0.00 64 1013.2
20260507113053 64 323 4.0 6.0 0.00 0.31 0.00 65 1013.2
20260507112952 64 9 4.0 6.0 0.00 0.31 0.00 66 1013.2
20260507112850 64 312 3.0 6.0 0.00 0.31 0.00 62 1013.3
20260507112807 63 284 3.0 8.0 0.00 0.31 0.00 63 1013.4
20260507112749 64 338 3.0 6.0 0.00 0.31 0.00 65 1013.3
20260507112649 64 9 3.0 6.0 0.00 0.31 0.00 66 1013.3
20260507112547 64 19 3.0 5.0 0.00 0.31 0.00 69 1013.3
20260507112445 63 325 3.0 5.0 0.00 0.31 0.00 65 1013.2
20260507112345 63 335 2.0 6.0 0.00 0.31 0.00 65 1013.3
20260507112323 63 34 4.0 6.0 0.00 0.31 0.00 69 1013.4
20260507112244 63 9 3.0 6.0 0.00 0.31 0.00 65 1013.3
20260507112142 63 144 2.0 8.0 0.00 0.31 0.00 64 1013.3
20260507112103 63 155 3.0 7.0 0.00 0.31 0.00 67 1013.5
20260507112044 63 128 2.0 8.0 0.00 0.31 0.00 64 1013.3
20260507111953 63 76 2.0 8.0 0.00 0.31 0.00 63 1013.3
20260507111909 63 340 2.0 8.0 0.00 0.31 0.00 62 1013.3
20260507111828 63 334 3.0 8.0 0.00 0.31 0.00 62 1013.3
20260507111607 63 294 4.0 8.0 0.00 0.31 0.00 62 1013.3
20260507111521 64 286 4.0 8.0 0.00 0.31 0.00 62 1013.3
20260507111331 64 304 5.0 8.0 0.00 0.31 0.00 65 1013.3
20260507111238 64 306 4.0 8.0 0.00 0.31 0.00 65 1013.3
20260507111128 64 303 2.0 6.0 0.00 0.31 0.00 63 1013.2
20260507111028 63 273 1.0 6.0 0.00 0.31 0.00 70 1013.4
20260507110925 63 221 1.0 6.0 0.00 0.31 0.00 68 1013.4
20260507110843 63 238 2.0 6.0 0.00 0.31 0.00 63 1013.4
20260507110802 63 319 3.0 6.0 0.00 0.31 0.00 65 1013.4
20260507110720 63 284 4.0 6.0 0.00 0.31 0.00 67 1013.4
20260507110444 63 22 3.0 6.0 0.00 0.31 0.00 66 1013.4
20260507110402 63 336 4.0 6.0 0.00 0.31 0.00 67 1013.4
20260507110320 63 49 4.0 6.0 0.00 0.31 0.00 67 1013.5
20260507110226 63 47 4.0 6.0 0.00 0.31 0.00 70 1013.5
20260507110143 63 67 4.0 5.0 0.00 0.31 0.00 66 1013.5
20260507105709 62 79 2.0 7.0 0.00 0.31 0.00 68 1013.6
20260507105609 62 54 3.0 7.0 0.00 0.31 0.00 67 1013.5
20260507105511 62 117 3.0 7.0 0.00 0.31 0.00 67 1013.5
20260507105405 62 49 2.0 7.0 0.00 0.31 0.00 66 1013.5
20260507105306 62 344 2.0 7.0 0.00 0.31 0.00 66 1013.5
20260507105200 63 34 4.0 7.0 0.00 0.31 0.00 63 1013.5
20260507105056 63 48 4.0 7.0 0.00 0.31 0.00 67 1013.5
20260507104953 63 103 3.0 7.0 0.00 0.31 0.00 67 1013.5
20260507104852 63 93 3.0 5.0 0.00 0.31 0.00 70 1013.5
20260507104811 63 31 2.0 5.0 0.00 0.31 0.00 69 1013.6
20260507104730 63 51 2.0 5.0 0.00 0.31 0.00 68 1013.6
20260507104646 62 59 2.0 5.0 0.00 0.31 0.00 67 1013.5
20260507104446 62 103 2.0 5.0 0.00 0.31 0.00 63 1013.5
20260507104344 62 142 3.0 6.0 0.00 0.31 0.00 64 1013.5
20260507104245 62 165 3.0 6.0 0.00 0.31 0.00 64 1013.5
20260507104144 62 196 2.0 7.0 0.00 0.31 0.00 70 1013.5
20260507104041 62 137 2.0 7.0 0.00 0.31 0.00 68 1013.5
20260507103942 62 9 2.0 7.0 0.00 0.31 0.00 63 1013.5
20260507103930 61 160 2.0 7.0 0.00 0.31 0.00 69 1013.6
20260507103837 62 298 2.0 7.0 0.00 0.31 0.00 65 1013.5
20260507103735 62 265 2.0 8.0 0.00 0.31 0.00 67 1013.5
20260507103651 62 215 3.0 8.0 0.00 0.31 0.00 67 1013.5
20260507103603 62 119 3.0 8.0 0.00 0.31 0.00 70 1013.6
20260507103515 62 93 4.0 8.0 0.00 0.31 0.00 69 1013.6
20260507103229 61 128 4.0 8.0 0.00 0.31 0.00 71 1013.6
20260507103127 61 101 2.0 8.0 0.00 0.31 0.00 69 1013.5
20260507103029 61 93 2.0 8.0 0.00 0.31 0.00 66 1013.5
20260507102925 62 41 4.0 8.0 0.00 0.31 0.00 67 1013.5
20260507102822 62 54 4.0 8.0 0.00 0.31 0.00 67 1013.6
20260507102723 62 71 3.0 7.0 0.00 0.31 0.00 70 1013.6
20260507102635 62 100 3.0 7.0 0.00 0.31 0.00 70 1013.6
20260507102554 62 105 2.0 7.0 0.00 0.31 0.00 67 1013.7
20260507102505 62 170 3.0 7.0 0.00 0.31 0.00 68 1013.6
20260507102422 62 163 3.0 7.0 0.00 0.31 0.00 68 1013.6
20260507102339 61 126 4.0 7.0 0.00 0.31 0.00 73 1013.7
20260507102117 61 221 1.0 5.0 0.00 0.31 0.00 67 1013.7
20260507101910 61 221 2.0 5.0 0.00 0.31 0.00 68 1013.7
20260507101811 61 178 2.0 5.0 0.00 0.31 0.00 69 1013.7
20260507101711 61 170 2.0 5.0 0.00 0.31 0.00 68 1013.7
20260507101608 61 178 2.0 8.0 0.00 0.31 0.00 68 1013.7
20260507101508 61 162 2.0 8.0 0.00 0.31 0.00 68 1013.8
20260507101428 60 48 2.0 6.0 0.00 0.31 0.00 76 1013.8
20260507101405 61 142 2.0 8.0 0.00 0.31 0.00 72 1013.8
20260507101336 60 119 2.0 6.0 0.00 0.31 0.00 76 1013.8
20260507101304 61 110 2.0 8.0 0.00 0.31 0.00 71 1013.7
20260507101203 60 111 2.0 8.0 0.00 0.31 0.00 70 1013.7
20260507101102 60 137 1.0 8.0 0.00 0.31 0.00 70 1013.7
20260507101032 60 46 3.0 7.0 0.00 0.31 0.00 77 1013.9
20260507101001 60 178 2.0 8.0 0.00 0.31 0.00 71 1013.6
20260507100911 60 54 4.0 7.0 0.00 0.31 0.00 80 1013.9
20260507100859 60 151 4.0 8.0 0.00 0.31 0.00 72 1013.6
20260507100800 60 59 4.0 9.0 0.00 0.31 0.00 70 1013.7
20260507100716 59 178 3.0 7.0 0.00 0.31 0.00 77 1013.8
20260507100700 60 11 3.0 9.0 0.00 0.31 0.00 73 1013.6
20260507100558 60 119 3.0 9.0 0.00 0.31 0.00 75 1013.7
20260507100459 60 106 3.0 9.0 0.00 0.31 0.00 75 1013.6
20260507100408 60 51 3.0 9.0 0.00 0.31 0.00 78 1013.7
20260507100327 60 123 3.0 9.0 0.00 0.31 0.00 75 1013.7
20260507100248 60 93 5.0 9.0 0.00 0.31 0.00 74 1013.7
20260507095952 60 93 4.0 9.0 0.00 0.31 0.00 75 1013.7
20260507095849 60 56 4.0 9.0 0.00 0.31 0.00 76 1013.7
20260507095748 60 76 4.0 9.0 0.00 0.31 0.00 75 1013.7
20260507095646 60 45 5.0 9.0 0.00 0.31 0.00 74 1013.7
20260507095546 60 64 3.0 9.0 0.00 0.31 0.00 78 1013.7
20260507095443 60 65 2.0 8.0 0.00 0.31 0.00 75 1013.7
20260507095400 58 323 2.0 6.0 0.00 0.31 0.00 77 1013.8
20260507095345 60 301 2.0 8.0 0.00 0.31 0.00 72 1013.7
20260507095305 59 9 4.0 8.0 0.00 0.31 0.00 73 1013.8
20260507095221 60 56 5.0 8.0 0.00 0.31 0.00 74 1013.8
20260507095139 60 61 4.0 8.0 0.00 0.31 0.00 76 1013.8
20260507095053 60 38 3.0 8.0 0.00 0.31 0.00 77 1013.8
20260507094626 60 119 3.0 6.0 0.00 0.31 0.00 76 1013.8
20260507094528 60 72 4.0 7.0 0.00 0.31 0.00 77 1013.8
20260507094429 60 56 3.0 7.0 0.00 0.31 0.00 75 1013.9
20260507094344 60 72 2.0 7.0 0.00 0.31 0.00 77 1013.8
20260507094305 60 93 3.0 7.0 0.00 0.31 0.00 77 1013.9
20260507094225 60 78 3.0 7.0 0.00 0.31 0.00 77 1013.8
20260507094001 60 93 4.0 7.0 0.00 0.31 0.00 77 1013.9
20260507093724 60 80 5.0 7.0 0.00 0.31 0.00 79 1013.9
20260507093643 60 72 3.0 7.0 0.00 0.31 0.00 79 1013.9
20260507093600 60 9 2.0 7.0 0.00 0.31 0.00 77 1013.8
20260507093312 59 135 4.0 7.0 0.00 0.31 0.00 79 1013.8
20260507093227 59 121 5.0 7.0 0.00 0.31 0.00 79 1013.8
20260507093145 59 99 4.0 7.0 0.00 0.31 0.00 80 1013.9
20260507093104 59 93 3.0 7.0 0.00 0.31 0.00 81 1013.8
20260507093005 59 93 2.0 7.0 0.00 0.31 0.00 79 1013.8
20260507092808 59 165 2.0 4.0 0.00 0.31 0.00 77 1013.8
20260507092710 59 133 2.0 4.0 0.00 0.31 0.00 77 1013.7
20260507092623 59 36 1.0 4.0 0.00 0.31 0.00 78 1013.8
20260507092544 59 39 1.0 4.0 0.00 0.31 0.00 76 1013.8
20260507092456 59 291 1.0 4.0 0.00 0.31 0.00 78 1013.8
20260507092306 59 309 1.0 4.0 0.00 0.31 0.00 78 1013.8
20260507092158 59 309 2.0 5.0 0.00 0.31 0.00 79 1013.8
20260507092058 58 205 2.0 5.0 0.00 0.31 0.00 77 1013.8
20260507091956 58 284 3.0 5.0 0.00 0.31 0.00 77 1013.8
20260507091854 58 319 3.0 5.0 0.00 0.31 0.00 77 1013.8
20260507091755 58 323 3.0 5.0 0.00 0.31 0.00 76 1013.8
20260507091655 58 341 3.0 6.0 0.00 0.31 0.00 78 1013.8
20260507091600 58 330 2.0 6.0 0.00 0.31 0.00 76 1013.8
20260507091519 58 15 2.0 6.0 0.00 0.31 0.00 77 1013.8
20260507091429 58 334 2.0 6.0 0.00 0.31 0.00 77 1013.8
20260507091145 57 178 2.0 6.0 0.00 0.31 0.00 78 1013.8
20260507091128 57 38 3.0 6.0 0.00 0.31 0.00 82 1013.9
20260507091045 57 34 2.0 6.0 0.00 0.31 0.00 81 1013.7
20260507090945 57 74 3.0 6.0 0.00 0.31 0.00 78 1013.8
20260507090843 57 82 3.0 6.0 0.00 0.31 0.00 77 1013.8
20260507090747 57 45 3.0 6.0 0.00 0.31 0.00 79 1013.8
20260507090708 57 54 3.0 4.0 0.00 0.31 0.00 79 1013.8
20260507090628 57 61 2.0 4.0 0.00 0.31 0.00 79 1013.8
20260507090547 57 49 1.0 4.0 0.00 0.31 0.00 79 1013.8
20260507090457 57 51 1.0 4.0 0.00 0.31 0.00 80 1013.9
20260507090416 57 153 2.0 4.0 0.00 0.31 0.00 77 1013.8
20260507090037 56 255 2.0 4.0 0.00 0.31 0.00 78 1013.9
20260507085957 56 309 1.0 5.0 0.00 0.31 0.00 80 1013.8
20260507085909 56 9 1.0 8.0 0.00 0.31 0.00 78 1014.0
20260507085630 57 108 1.0 8.0 0.00 0.31 0.00 77 1014.0
20260507085531 57 67 2.0 8.0 0.00 0.31 0.00 78 1014.0
20260507085423 57 61 2.0 8.0 0.00 0.31 0.00 81 1013.9
20260507085334 57 24 2.0 8.0 0.00 0.31 0.00 81 1013.9
20260507085251 57 13 3.0 8.0 0.00 0.31 0.00 79 1013.9
20260507085210 57 28 3.0 8.0 0.00 0.31 0.00 81 1013.9
20260507085014 57 31 4.0 8.0 0.00 0.31 0.00 82 1013.9
20260507084912 57 22 4.0 8.0 0.00 0.31 0.00 79 1013.9
20260507084812 57 31 4.0 6.0 0.00 0.31 0.00 81 1013.9
20260507084709 57 63 4.0 6.0 0.00 0.31 0.00 80 1013.8
20260507084609 57 31 4.0 6.0 0.00 0.31 0.00 79 1013.9
20260507084507 57 39 4.0 6.0 0.00 0.31 0.00 81 1013.9
20260507084412 57 344 4.0 6.0 0.00 0.31 0.00 80 1013.8
20260507084325 57 42 4.0 6.0 0.00 0.31 0.00 82 1013.9
20260507084246 57 51 3.0 6.0 0.00 0.31 0.00 82 1013.9
20260507084003 57 55 4.0 6.0 0.00 0.31 0.00 82 1013.9
20260507083953 55 99 2.0 4.0 0.00 0.31 0.00 84 1013.8
20260507083904 57 82 4.0 6.0 0.00 0.31 0.00 82 1013.9
20260507083841 55 137 2.0 4.0 0.00 0.31 0.00 83 1013.8
20260507083802 57 105 4.0 6.0 0.00 0.31 0.00 83 1013.9
20260507083722 57 38 4.0 6.0 0.00 0.31 0.00 82 1013.9
20260507083640 57 75 2.0 6.0 0.00 0.31 0.00 83 1013.9
20260507083359 56 34 2.0 5.0 0.00 0.31 0.00 82 1013.9
20260507083253 56 103 2.0 5.0 0.00 0.31 0.00 82 1013.9
20260507083218 54 238 1.0 3.0 0.00 0.31 0.00 85 1013.8
20260507083152 56 57 3.0 5.0 0.00 0.31 0.00 83 1013.9
20260507083053 56 48 3.0 4.0 0.00 0.31 0.00 83 1013.9
20260507083042 54 298 1.0 3.0 0.00 0.31 0.00 85 1013.8
20260507083001 56 27 3.0 4.0 0.00 0.31 0.00 83 1013.9
20260507082912 56 51 3.0 5.0 0.00 0.31 0.00 83 1013.9
20260507082831 56 119 3.0 5.0 0.00 0.31 0.00 82 1014.0
20260507082547 56 84 2.0 5.0 0.00 0.31 0.00 83 1014.0
20260507082444 56 334 2.0 5.0 0.00 0.31 0.00 84 1013.9
20260507082343 55 9 2.0 5.0 0.00 0.31 0.00 83 1013.9
20260507082243 55 32 2.0 5.0 0.00 0.31 0.00 82 1014.0
20260507082141 56 51 3.0 5.0 0.00 0.31 0.00 82 1014.0
20260507082112 53 34 1.0 3.0 0.00 0.31 0.00 91 1013.8
20260507082044 56 42 3.0 5.0 0.00 0.31 0.00 84 1013.9
20260507081942 56 54 2.0 3.0 0.00 0.31 0.00 83 1013.9
20260507081928 53 119 1.0 3.0 0.00 0.31 0.00 94 1013.9
20260507081841 55 84 2.0 3.0 0.00 0.31 0.00 83 1013.9
20260507081759 55 119 1.0 3.0 0.00 0.31 0.00 83 1013.9
20260507081719 55 115 1.0 3.0 0.00 0.31 0.00 83 1014.0
20260507081637 55 221 1.0 3.0 0.00 0.31 0.00 83 1013.9
20260507081428 55 150 1.0 4.0 0.00 0.31 0.00 83 1013.8
20260507081331 55 165 1.0 4.0 0.00 0.31 0.00 83 1013.9
20260507081251 55 153 1.0 4.0 0.00 0.31 0.00 81 1013.8
20260507081211 55 93 1.0 4.0 0.00 0.31 0.00 83 1013.9
20260507081126 55 137 2.0 4.0 0.00 0.31 0.00 86 1013.9
20260507081043 55 126 2.0 4.0 0.00 0.31 0.00 85 1013.9
20260507080816 55 150 1.0 4.0 0.00 0.31 0.00 83 1013.9
20260507080556 55 153 2.0 4.0 0.00 0.31 0.00 86 1013.8
20260507080458 55 165 1.0 4.0 0.00 0.31 0.00 86 1013.9
20260507080357 55 178 1.0 3.0 0.00 0.31 0.00 85 1013.9
20260507080304 54 295 1.0 3.0 0.00 0.31 0.00 85 1013.9
20260507080224 54 319 1.0 3.0 0.00 0.31 0.00 84 1013.9
20260507080145 54 298 1.0 3.0 0.00 0.31 0.00 84 1013.9
20260507075919 54 309 2.0 3.0 0.00 0.31 0.00 85 1013.9
20260507075837 55 309 2.0 3.0 0.00 0.31 0.00 85 1013.9
20260507075503 55 265 1.0 3.0 0.00 0.31 0.00 87 1013.8
20260507075449 52 74 2.0 4.0 0.00 0.31 0.00 94 1013.8
20260507075402 55 221 1.0 3.0 0.00 0.31 0.00 87 1013.9
20260507075315 51 115 2.0 4.0 0.00 0.31 0.00 94 1013.9
20260507075306 54 267 2.0 3.0 0.00 0.31 0.00 87 1013.8
20260507075200 54 227 2.0 3.0 0.00 0.31 0.00 87 1013.9
20260507075058 54 236 1.0 3.0 0.00 0.31 0.00 87 1013.8
20260507075030 51 115 1.0 3.0 0.00 0.31 0.00 94 1013.8
20260507074957 54 215 1.0 3.0 0.00 0.31 0.00 87 1013.8
20260507074855 54 9 1.0 3.0 0.00 0.31 0.00 87 1013.8
20260507074756 54 205 1.0 3.0 0.00 0.31 0.00 88 1013.8
20260507074717 54 51 2.0 3.0 0.00 0.31 0.00 89 1013.9
20260507074636 53 161 2.0 3.0 0.00 0.31 0.00 90 1013.9
20260507074555 53 309 2.0 3.0 0.00 0.31 0.00 90 1013.9
20260507074506 53 126 2.0 3.0 0.00 0.31 0.00 91 1013.8
20260507074423 53 247 2.0 3.0 0.00 0.31 0.00 90 1013.8
20260507074342 53 83 2.0 3.0 0.00 0.31 0.00 91 1013.8
20260507074119 53 93 1.0 3.0 0.00 0.31 0.00 91 1013.9
20260507074030 52 146 1.0 3.0 0.00 0.31 0.00 93 1013.8
20260507073626 52 205 1.0 4.0 0.00 0.31 0.00 94 1013.8
20260507073544 52 153 2.0 4.0 0.00 0.31 0.00 94 1013.8
20260507073455 52 123 2.0 4.0 0.00 0.31 0.00 94 1013.9
20260507073054 51 67 1.0 4.0 0.00 0.31 0.00 94 1013.8
20260507073012 51 126 1.0 4.0 0.00 0.31 0.00 94 1013.8
20260507072803 51 119 1.0 4.0 0.00 0.31 0.00 94 1013.8
20260507072725 51 178 2.0 4.0 0.00 0.31 0.00 94 1013.8
20260507072622 51 67 3.0 4.0 0.00 0.31 0.00 94 1013.8
20260507072526 51 105 2.0 4.0 0.00 0.31 0.00 94 1013.8
20260507072443 51 93 2.0 3.0 0.00 0.31 0.00 94 1013.8
20260507072356 51 126 2.0 3.0 0.00 0.31 0.00 94 1013.8
20260507072152 50 178 2.0 4.0 0.00 0.31 0.00 94 1013.8
20260507072113 51 59 1.0 2.0 0.00 0.31 0.00 94 1013.8
20260507072013 51 153 1.0 2.0 0.00 0.31 0.00 94 1013.8
20260507071918 51 61 1.0 3.0 0.00 0.31 0.00 94 1013.8
20260507071829 51 110 1.0 3.0 0.00 0.31 0.00 94 1013.7
20260507071748 51 137 1.0 3.0 0.00 0.31 0.00 94 1013.8
20260507071510 51 161 1.0 4.0 0.00 0.31 0.00 94 1013.8
20260507071406 51 129 1.0 4.0 0.00 0.31 0.00 94 1013.8
20260507071305 51 119 1.0 4.0 0.00 0.31 0.00 94 1013.8
20260507071223 50 116 1.0 4.0 0.00 0.31 0.00 94 1013.8
20260507071141 50 153 2.0 4.0 0.00 0.31 0.00 94 1013.8
20260507071104 50 153 2.0 4.0 0.00 0.31 0.00 94 1013.9
20260507070836 50 168 2.0 4.0 0.00 0.31 0.00 94 1013.8
20260507070754 50 193 1.0 4.0 0.00 0.31 0.00 94 1013.8
20260507070553 50 178 1.0 4.0 0.00 0.31 0.00 94 1013.8
20260507070449 50 165 2.0 4.0 0.00 0.31 0.00 94 1013.8
20260507070400 49 168 2.0 4.0 0.00 0.31 0.00 94 1013.8
20260507070306 49 188 1.0 4.0 0.00 0.31 0.00 94 1013.8
20260507070213 49 178 1.0 3.0 0.00 0.31 0.00 94 1013.8
20260507070130 49 178 1.0 3.0 0.00 0.31 0.00 94 1013.9
20260507070024 49 178 1.0 3.0 0.00 0.31 0.00 94 1013.8
20260507065740 49 178 1.0 2.0 0.00 0.31 0.00 94 1013.9
20260507065713 49 171 1.0 2.0 0.00 0.31 0.00 94 1013.9
20260507065648 49 212 1.0 2.0 0.00 0.31 0.00 94 1013.8
20260507065608 49 178 1.0 2.0 0.00 0.31 0.00 94 1013.9
20260507065524 49 221 1.0 2.0 0.00 0.31 0.00 94 1013.9
20260507065235 49 165 1.0 2.0 0.00 0.31 0.00 94 1013.9
20260507065134 49 178 1.0 2.0 0.00 0.31 0.00 94 1013.9
20260507065039 49 137 1.0 2.0 0.00 0.31 0.00 94 1013.8
20260507064932 49 161 1.0 2.0 0.00 0.31 0.00 94 1013.9
20260507064830 48 123 1.0 2.0 0.00 0.31 0.00 94 1014.0
20260507064729 48 196 0.0 2.0 0.00 0.31 0.00 94 1013.8
20260507064629 48 265 0.0 2.0 0.00 0.31 0.00 94 1013.9
20260507064527 48 93 0.0 2.0 0.00 0.31 0.00 94 1013.8
20260507064424 48 205 0.0 2.0 0.00 0.31 0.00 94 1013.8
20260507064324 48 153 0.0 2.0 0.00 0.31 0.00 94 1013.8
20260507064230 47 93 1.0 2.0 0.00 0.31 0.00 94 1014.0
20260507064220 48 51 0.0 2.0 0.00 0.31 0.00 94 1013.8
20260507064121 48 153 0.0 2.0 0.00 0.31 0.00 94 1013.8
20260507064020 48 137 0.0 2.0 0.00 0.31 0.00 94 1013.9
20260507063918 48 126 1.0 2.0 0.00 0.31 0.00 94 1014.0
20260507063817 48 59 1.0 2.0 0.00 0.31 0.00 94 1013.9
20260507063728 48 76 1.0 2.0 0.00 0.31 0.00 94 1013.9
20260507063647 48 9 1.0 2.0 0.00 0.31 0.00 94 1013.9
20260507063607 48 301 0.0 2.0 0.00 0.31 0.00 94 1013.9
20260507063410 48 196 0.0 2.0 0.00 0.31 0.00 94 1013.9
20260507063308 47 205 0.0 2.0 0.00 0.31 0.00 94 1013.9
20260507063208 47 282 0.0 2.0 0.00 0.31 0.00 94 1013.9
20260507063148 46 221 0.0 2.0 0.00 0.31 0.00 93 1014.0
20260507063108 47 250 0.0 2.0 0.00 0.31 0.00 94 1013.9
20260507063008 47 265 0.0 2.0 0.00 0.31 0.00 94 1013.9
20260507062920 47 9 0.0 2.0 0.00 0.31 0.00 94 1013.9
20260507062837 47 137 0.0 2.0 0.00 0.31 0.00 94 1013.9
20260507062632 46 161 0.0 1.0 0.00 0.31 0.00 93 1014.0
20260507062556 47 111 1.0 2.0 0.00 0.31 0.00 94 1014.0
20260507062448 47 34 1.0 2.0 0.00 0.31 0.00 94 1013.9
20260507062349 47 9 1.0 2.0 0.00 0.31 0.00 94 1014.0
20260507062340 46 93 0.0 1.0 0.00 0.31 0.00 93 1014.0
20260507062246 47 9 1.0 2.0 0.00 0.31 0.00 94 1014.0
20260507062214 45 153 0.0 1.0 0.00 0.31 0.00 93 1014.0
20260507062145 47 338 1.0 2.0 0.00 0.31 0.00 94 1014.0
20260507062049 45 51 0.0 1.0 0.00 0.31 0.00 93 1014.0
20260507062044 47 338 1.0 2.0 0.00 0.31 0.00 94 1014.0
20260507061942 46 9 1.0 2.0 0.00 0.31 0.00 93 1014.0
20260507061844 46 282 0.0 2.0 0.00 0.31 0.00 93 1014.0
20260507061742 46 309 0.0 2.0 0.00 0.31 0.00 93 1013.9
20260507061656 46 265 1.0 2.0 0.00 0.31 0.00 93 1014.0
20260507061620 46 178 1.0 2.0 0.00 0.31 0.00 93 1014.0
20260507061340 46 178 0.0 2.0 0.00 0.31 0.00 93 1014.0
20260507061235 46 221 0.0 2.0 0.00 0.31 0.00 93 1014.0
20260507061133 46 205 0.0 2.0 0.00 0.31 0.00 93 1013.9
20260507061041 46 221 0.0 2.0 0.00 0.31 0.00 93 1013.9
20260507061000 46 178 0.0 2.0 0.00 0.31 0.00 93 1014.0
20260507060907 46 146 0.0 2.0 0.00 0.31 0.00 93 1013.9
20260507060634 45 137 1.0 2.0 0.00 0.31 0.00 93 1013.7
20260507060626 46 161 1.0 2.0 0.00 0.31 0.00 93 1013.9
20260507060527 46 178 1.0 2.0 0.00 0.31 0.00 93 1014.0
20260507060425 46 168 1.0 2.0 0.00 0.31 0.00 93 1013.9
20260507060341 46 178 1.0 1.0 0.00 0.31 0.00 93 1014.0
20260507060259 46 196 0.0 1.0 0.00 0.31 0.00 93 1013.9
20260507060058 45 153 0.0 1.0 0.00 0.31 0.00 93 1013.6
20260507060019 46 111 1.0 1.0 0.00 0.31 0.00 93 1013.9
20260507055915 46 93 1.0 1.0 0.00 0.31 0.00 93 1013.9
20260507055813 46 126 1.0 1.0 0.00 0.31 0.00 93 1013.9
20260507055739 46 137 0.0 3.0 0.00 0.31 0.00 93 1013.7
20260507055707 46 93 0.0 1.0 0.00 0.31 0.00 93 1014.0
20260507055616 46 137 0.0 1.0 0.00 0.31 0.00 93 1013.9
20260507055537 46 67 0.0 1.0 0.00 0.31 0.00 93 1014.0
20260507055259 45 137 0.0 1.0 0.00 0.31 0.00 93 1014.0
20260507055228 45 137 0.0 1.0 0.00 0.31 0.00 93 1014.0
20260507054953 45 153 0.0 1.0 0.00 0.31 0.00 93 1014.0
20260507054919 45 137 0.0 1.0 0.00 0.31 0.00 93 1014.0
20260507054836 45 137 0.0 1.0 0.00 0.31 0.00 93 1013.9
20260507054619 45 51 0.0 1.0 0.00 0.31 0.00 93 1014.0
20260507054431 45 51 0.0 1.0 0.00 0.31 0.00 93 1013.9
20260507054317 45 51 0.0 1.0 0.00 0.31 0.00 93 1013.9
20260507054230 45 51 0.0 1.0 0.00 0.31 0.00 93 1014.0
20260507054153 45 9 0.0 1.0 0.00 0.31 0.00 93 1013.9
20260507054017 45 334 0.0 2.0 0.00 0.31 0.00 93 1013.9
20260507053917 45 319 0.0 2.0 0.00 0.31 0.00 93 1013.9
20260507053813 45 26 0.0 2.0 0.00 0.31 0.00 93 1013.9
20260507053712 45 153 0.0 2.0 0.00 0.31 0.00 93 1013.9
20260507053651 46 93 1.0 2.0 0.00 0.31 0.00 93 1013.5
20260507053616 45 153 0.0 2.0 0.00 0.31 0.00 93 1013.9
20260507053524 45 153 0.0 2.0 0.00 0.31 0.00 93 1013.9
20260507053446 45 111 0.0 2.0 0.00 0.31 0.00 93 1013.9
20260507053400 45 93 1.0 2.0 0.00 0.31 0.00 93 1013.9
20260507053204 45 205 1.0 2.0 0.00 0.31 0.00 93 1014.0
20260507053102 45 165 1.0 2.0 0.00 0.31 0.00 93 1013.9
20260507053000 45 168 1.0 1.0 0.00 0.31 0.00 93 1013.9
20260507052859 45 165 1.0 1.0 0.00 0.31 0.00 93 1013.9
20260507052759 45 165 1.0 2.0 0.00 0.31 0.00 93 1013.9
20260507052659 45 165 0.0 2.0 0.00 0.31 0.00 93 1013.8
20260507052557 45 161 0.0 2.0 0.00 0.31 0.00 93 1013.8
20260507052452 45 178 0.0 2.0 0.00 0.31 0.00 93 1013.8
20260507052414 45 153 0.0 2.0 0.00 0.31 0.00 93 1013.8
20260507052326 45 161 0.0 2.0 0.00 0.31 0.00 93 1013.8
20260507052123 47 9 0.0 1.0 0.00 0.31 0.00 93 1013.5
20260507052051 45 137 1.0 2.0 0.00 0.31 0.00 93 1013.8
20260507051950 45 161 1.0 2.0 0.00 0.31 0.00 93 1013.7
20260507051849 45 165 0.0 2.0 0.00 0.31 0.00 93 1013.7
20260507051805 45 153 0.0 1.0 0.00 0.31 0.00 93 1013.7
20260507051725 45 153 0.0 1.0 0.00 0.31 0.00 93 1013.7
20260507051443 45 221 1.0 1.0 0.00 0.31 0.00 93 1013.7
20260507051341 45 291 1.0 1.0 0.00 0.31 0.00 93 1013.7
20260507051242 46 309 1.0 2.0 0.00 0.31 0.00 93 1013.7
20260507051227 47 119 0.0 2.0 0.00 0.31 0.00 93 1013.4
20260507051132 46 325 0.0 3.0 0.00 0.31 0.00 93 1013.7
20260507051037 46 265 0.0 3.0 0.00 0.31 0.00 93 1013.7
20260507051008 47 105 0.0 1.0 0.00 0.31 0.00 93 1013.4
20260507050931 46 161 0.0 3.0 0.00 0.31 0.00 93 1013.7
20260507050829 46 137 0.0 3.0 0.00 0.31 0.00 93 1013.7
20260507050740 46 93 0.0 3.0 0.00 0.31 0.00 93 1013.7
20260507050703 46 153 0.0 3.0 0.00 0.31 0.00 93 1013.7
20260507050504 47 126 0.0 2.0 0.00 0.31 0.00 93 1013.4
20260507050426 46 161 1.0 3.0 0.00 0.31 0.00 93 1013.7
20260507050415 47 137 1.0 2.0 0.00 0.31 0.00 93 1013.4
20260507050325 46 161 2.0 3.0 0.00 0.31 0.00 93 1013.8
20260507050223 46 178 1.0 3.0 0.00 0.31 0.00 93 1013.7
20260507050159 47 93 0.0 2.0 0.00 0.31 0.00 93 1013.4
20260507050134 46 168 1.0 3.0 0.00 0.31 0.00 93 1013.8
20260507050043 46 165 2.0 3.0 0.00 0.31 0.00 93 1013.7
20260507050000 46 171 2.0 3.0 0.00 0.31 0.00 93 1013.7
20260507045717 46 171 1.0 2.0 0.00 0.31 0.00 93 1013.6
20260507045616 46 158 1.0 2.0 0.00 0.31 0.00 93 1013.7
20260507045516 46 171 1.0 3.0 0.00 0.31 0.00 93 1013.7
20260507045432 46 161 0.0 3.0 0.00 0.31 0.00 93 1013.6
20260507045349 46 153 0.0 3.0 0.00 0.31 0.00 93 1013.6
20260507045103 46 178 0.0 3.0 0.00 0.31 0.00 93 1013.6
20260507045006 46 137 1.0 3.0 0.00 0.31 0.00 93 1013.6
20260507044936 47 126 1.0 1.0 0.00 0.31 0.00 93 1013.4
20260507044905 46 137 1.0 3.0 0.00 0.31 0.00 93 1013.6
20260507044802 46 111 2.0 3.0 0.00 0.31 0.00 93 1013.6
20260507044658 46 103 2.0 3.0 0.00 0.31 0.00 93 1013.6
20260507044612 47 161 0.0 1.0 0.00 0.31 0.00 93 1013.5
20260507044600 46 93 2.0 3.0 0.00 0.31 0.00 93 1013.6
20260507044457 46 108 2.0 2.0 0.00 0.31 0.00 93 1013.6
20260507044404 46 103 1.0 2.0 0.00 0.31 0.00 93 1013.5
20260507044317 46 103 1.0 2.0 0.00 0.31 0.00 93 1013.5
20260507044234 46 103 1.0 2.0 0.00 0.31 0.00 93 1013.5
20260507044013 46 80 0.0 2.0 0.00 0.31 0.00 93 1013.5
20260507043937 46 93 0.0 1.0 0.00 0.31 0.00 93 1013.5
20260507043851 46 9 0.0 2.0 0.00 0.31 0.00 93 1013.5
20260507043818 46 9 0.0 2.0 0.00 0.31 0.00 93 1013.5
20260507043446 46 9 0.0 2.0 0.00 0.31 0.00 93 1013.5
20260507043341 46 9 0.0 2.0 0.00 0.31 0.00 93 1013.5
20260507043243 48 93 0.0 2.0 0.00 0.31 0.00 93 1013.6
20260507043230 46 9 0.0 2.0 0.00 0.31 0.00 93 1013.5
20260507043214 48 137 0.0 2.0 0.00 0.31 0.00 93 1013.6
20260507043125 46 325 0.0 2.0 0.00 0.31 0.00 93 1013.5
20260507043020 46 9 1.0 2.0 0.00 0.31 0.00 93 1013.5
20260507042917 46 9 1.0 2.0 0.00 0.31 0.00 93 1013.5
20260507042817 46 9 1.0 2.0 0.00 0.31 0.00 93 1013.6
20260507042801 48 137 1.0 2.0 0.00 0.31 0.00 93 1013.7
20260507042716 46 321 1.0 2.0 0.00 0.31 0.00 92 1013.5
20260507042619 46 319 0.0 1.0 0.00 0.31 0.00 93 1013.6
20260507042517 46 51 0.0 1.0 0.00 0.31 0.00 93 1013.5
20260507042414 46 51 0.0 1.0 0.00 0.31 0.00 93 1013.5
20260507042312 46 51 0.0 1.0 0.00 0.31 0.00 93 1013.6
20260507042256 48 137 0.0 1.0 0.00 0.31 0.00 93 1013.6
20260507042235 48 161 0.0 1.0 0.00 0.31 0.00 93 1013.6
20260507042207 46 51 0.0 1.0 0.00 0.31 0.00 93 1013.6
20260507042119 48 178 1.0 1.0 0.00 0.31 0.00 93 1013.7
20260507042057 46 51 0.0 1.0 0.00 0.31 0.00 93 1013.6
20260507042035 48 146 1.0 1.0 0.00 0.31 0.00 93 1013.7
20260507041943 46 51 0.0 1.0 0.00 0.31 0.00 93 1013.6
20260507041847 46 265 1.0 1.0 0.00 0.31 0.00 93 1013.6
20260507041836 48 126 0.0 1.0 0.00 0.31 0.00 93 1013.7
20260507041746 46 291 1.0 1.0 0.00 0.31 0.00 93 1013.6
20260507041729 48 161 0.0 1.0 0.00 0.31 0.00 93 1013.7
20260507041644 46 265 0.0 1.0 0.00 0.31 0.00 93 1013.5
20260507041607 46 247 0.0 1.0 0.00 0.31 0.00 93 1013.6
20260507041523 46 178 0.0 1.0 0.00 0.31 0.00 93 1013.5
20260507041339 47 178 0.0 1.0 0.00 0.31 0.00 93 1013.6
20260507041251 47 178 0.0 1.0 0.00 0.31 0.00 93 1013.5
20260507041213 47 9 0.0 1.0 0.00 0.31 0.00 93 1013.6
20260507041025 48 178 1.0 1.0 0.00 0.31 0.00 93 1013.7
20260507040926 47 9 0.0 1.0 0.00 0.31 0.00 93 1013.5
20260507040826 47 9 0.0 1.0 0.00 0.31 0.00 93 1013.5
20260507040724 47 282 0.0 1.0 0.00 0.31 0.00 93 1013.4
20260507040707 49 153 1.0 2.0 0.00 0.31 0.00 93 1013.8
20260507040623 47 282 0.0 1.0 0.00 0.31 0.00 93 1013.4
20260507040519 47 282 0.0 1.0 0.00 0.31 0.00 93 1013.5
20260507040431 49 168 1.0 3.0 0.00 0.31 0.00 93 1013.8
20260507040418 47 282 0.0 1.0 0.00 0.31 0.00 93 1013.5
20260507040318 47 309 0.0 1.0 0.00 0.31 0.00 93 1013.4
20260507040219 47 93 0.0 1.0 0.00 0.31 0.00 93 1013.4
20260507040129 47 93 0.0 1.0 0.00 0.31 0.00 93 1013.4
20260507040040 47 93 0.0 1.0 0.00 0.31 0.00 93 1013.4
20260507035856 47 93 0.0 2.0 0.00 0.31 0.00 93 1013.4
20260507035754 47 178 0.0 2.0 0.00 0.31 0.00 93 1013.4
20260507035641 47 153 0.0 2.0 0.00 0.31 0.00 93 1013.4
20260507035541 47 178 0.0 2.0 0.00 0.31 0.00 93 1013.4
20260507035501 47 137 0.0 2.0 0.00 0.31 0.00 93 1013.4
20260507035428 47 137 1.0 2.0 0.00 0.31 0.00 93 1013.4
20260507035138 47 93 0.0 2.0 0.00 0.31 0.00 93 1013.4
20260507035037 47 126 1.0 2.0 0.00 0.31 0.00 93 1013.4
20260507034957 47 72 1.0 2.0 0.00 0.31 0.00 93 1013.4
20260507034903 47 111 1.0 2.0 0.00 0.31 0.00 93 1013.4
20260507034816 47 119 1.0 2.0 0.00 0.31 0.00 93 1013.4
20260507034621 49 178 2.0 2.0 0.00 0.31 0.00 93 1013.8
20260507034524 47 111 0.0 1.0 0.00 0.31 0.00 93 1013.4
20260507034454 49 178 1.0 1.0 0.00 0.31 0.00 93 1013.9
20260507034424 47 119 0.0 1.0 0.00 0.31 0.00 93 1013.4
20260507034335 47 161 0.0 2.0 0.00 0.31 0.00 93 1013.4
20260507034234 47 161 0.0 2.0 0.00 0.31 0.00 93 1013.5
20260507034158 47 153 1.0 2.0 0.00 0.31 0.00 93 1013.4
20260507034120 47 161 1.0 2.0 0.00 0.31 0.00 93 1013.5
20260507033849 47 119 0.0 2.0 0.00 0.31 0.00 93 1013.4
20260507033625 47 93 1.0 2.0 0.00 0.31 0.00 93 1013.4
20260507033541 47 111 1.0 2.0 0.00 0.31 0.00 93 1013.4
20260507033501 47 126 1.0 2.0 0.00 0.31 0.00 93 1013.4
20260507033414 47 111 0.0 2.0 0.00 0.31 0.00 93 1013.5
20260507033140 47 119 1.0 2.0 0.00 0.31 0.00 93 1013.4
20260507033055 47 137 1.0 2.0 0.00 0.31 0.00 93 1013.5
20260507032854 47 108 1.0 2.0 0.00 0.31 0.00 93 1013.4
20260507032829 49 309 0.0 1.0 0.00 0.31 0.00 93 1013.9
20260507032752 47 137 0.0 2.0 0.00 0.31 0.00 93 1013.5
20260507032646 47 161 0.0 2.0 0.00 0.31 0.00 93 1013.4
20260507032603 47 178 0.0 2.0 0.00 0.31 0.00 93 1013.5
20260507032524 47 137 1.0 2.0 0.00 0.31 0.00 93 1013.5
20260507032445 47 126 1.0 2.0 0.00 0.31 0.00 93 1013.5
20260507032241 47 111 1.0 2.0 0.00 0.31 0.00 93 1013.5
20260507032141 47 119 1.0 2.0 0.00 0.31 0.00 93 1013.5
20260507032127 49 146 1.0 4.0 0.00 0.31 0.00 93 1014.0
20260507032036 47 126 1.0 2.0 0.00 0.31 0.00 93 1013.5
20260507031959 47 126 1.0 2.0 0.00 0.31 0.00 93 1013.5
20260507031917 47 111 1.0 2.0 0.00 0.31 0.00 93 1013.5
20260507031630 47 111 1.0 1.0 0.00 0.31 0.00 93 1013.4
20260507031529 47 108 1.0 1.0 0.00 0.31 0.00 93 1013.5
20260507031509 49 110 2.0 4.0 0.00 0.31 0.00 93 1014.0
20260507031427 47 126 1.0 1.0 0.00 0.31 0.00 93 1013.5
20260507031331 47 93 1.0 1.0 0.00 0.31 0.00 93 1013.5
20260507031225 47 137 1.0 1.0 0.00 0.31 0.00 93 1013.5
20260507031125 47 137 0.0 1.0 0.00 0.31 0.00 93 1013.5
20260507031032 47 161 0.0 1.0 0.00 0.31 0.00 93 1013.5
20260507030949 47 161 0.0 1.0 0.00 0.31 0.00 93 1013.5
20260507030741 49 193 2.0 4.0 0.00 0.31 0.00 93 1014.3
20260507030705 47 161 0.0 1.0 0.00 0.31 0.00 93 1013.5
20260507030651 49 178 2.0 4.0 0.00 0.31 0.00 93 1014.3
20260507030611 47 137 0.0 1.0 0.00 0.31 0.00 93 1013.5
20260507030531 47 153 0.0 1.0 0.00 0.31 0.00 93 1013.5
20260507030254 47 309 0.0 1.0 0.00 0.31 0.00 93 1013.5
20260507030213 47 309 0.0 1.0 0.00 0.31 0.00 93 1013.6
20260507030135 48 309 0.0 1.0 0.00 0.31 0.00 93 1013.6
20260507025946 47 119 0.0 1.0 0.00 0.31 0.00 93 1013.6
20260507025907 48 119 0.0 1.0 0.00 0.31 0.00 93 1013.6
20260507025830 48 119 0.0 1.0 0.00 0.31 0.00 93 1013.6
20260507025752 48 119 0.0 2.0 0.00 0.31 0.00 93 1013.6
20260507025413 49 247 0.0 1.0 0.00 0.31 0.00 93 1014.4
20260507025337 48 137 1.0 2.0 0.00 0.31 0.00 93 1013.6
20260507025237 48 93 1.0 2.0 0.00 0.31 0.00 93 1013.7
20260507025134 48 126 0.0 2.0 0.00 0.31 0.00 93 1013.6
20260507025034 48 137 0.0 2.0 0.00 0.31 0.00 93 1013.6
20260507025016 49 76 2.0 3.0 0.00 0.31 0.00 93 1014.4
20260507024933 48 137 0.0 2.0 0.00 0.31 0.00 93 1013.6
20260507024919 49 113 2.0 4.0 0.00 0.31 0.00 93 1014.4
20260507024832 48 93 0.0 2.0 0.00 0.31 0.00 93 1013.6
20260507024732 48 126 1.0 2.0 0.00 0.31 0.00 93 1013.6
20260507024629 48 137 1.0 2.0 0.00 0.31 0.00 93 1013.6
20260507024543 48 146 0.0 2.0 0.00 0.31 0.00 93 1013.6
20260507024503 48 93 0.0 2.0 0.00 0.31 0.00 93 1013.6
20260507024424 48 137 0.0 2.0 0.00 0.31 0.00 93 1013.6
20260507024344 48 119 1.0 2.0 0.00 0.31 0.00 93 1013.6
20260507024259 48 137 1.0 2.0 0.00 0.31 0.00 93 1013.6
20260507023918 48 126 0.0 2.0 0.00 0.31 0.00 93 1013.6
20260507023817 48 137 0.0 1.0 0.00 0.31 0.00 93 1013.6
20260507023758 49 119 1.0 2.0 0.00 0.31 0.00 93 1014.5
20260507023717 48 291 0.0 1.0 0.00 0.31 0.00 93 1013.6
20260507023617 48 291 0.0 1.0 0.00 0.31 0.00 93 1013.6
20260507023513 48 291 0.0 1.0 0.00 0.31 0.00 93 1013.6
20260507023458 49 126 1.0 2.0 0.00 0.31 0.00 93 1014.4
20260507023413 48 291 0.0 1.0 0.00 0.31 0.00 93 1013.6
20260507023349 49 119 1.0 4.0 0.00 0.31 0.00 93 1014.4
20260507023313 48 291 0.0 1.0 0.00 0.31 0.00 93 1013.6
20260507023252 49 129 1.0 4.0 0.00 0.31 0.00 93 1014.4
20260507023235 49 129 1.0 4.0 0.00 0.31 0.00 93 1014.4
20260507023213 48 9 0.0 1.0 0.00 0.31 0.00 93 1013.6
20260507023149 49 153 1.0 4.0 0.00 0.32 0.00 93 1014.4
20260507023111 48 9 0.0 1.0 0.00 0.31 0.00 93 1013.6
20260507023011 48 9 0.0 1.0 0.00 0.31 0.00 93 1013.6
20260507022946 49 165 2.0 2.0 0.00 0.32 0.00 93 1014.4
20260507022913 48 9 0.0 1.0 0.00 0.31 0.00 93 1013.7
20260507022828 48 265 0.0 1.0 0.00 0.31 0.00 93 1013.6
20260507022745 48 9 0.0 1.0 0.00 0.31 0.00 93 1013.6
20260507022707 48 93 0.0 1.0 0.00 0.31 0.00 93 1013.6
20260507022631 48 93 0.0 1.0 0.00 0.31 0.00 93 1013.6
20260507022223 48 153 0.0 1.0 0.00 0.31 0.00 93 1013.7
20260507022144 48 153 0.0 1.0 0.00 0.31 0.00 93 1013.7
20260507022107 48 178 0.0 1.0 0.00 0.31 0.00 93 1013.7
20260507022026 48 161 1.0 1.0 0.00 0.31 0.00 93 1013.6
20260507021802 48 161 1.0 1.0 0.00 0.31 0.00 93 1013.7
20260507021549 48 153 1.0 1.0 0.00 0.31 0.00 93 1013.6
20260507021508 48 146 0.0 1.0 0.00 0.31 0.00 93 1013.7
20260507021427 48 137 0.0 1.0 0.00 0.31 0.00 93 1013.7
20260507021346 48 137 1.0 1.0 0.00 0.31 0.00 93 1013.7
20260507021311 48 126 1.0 1.0 0.00 0.31 0.00 93 1013.7
20260507021053 48 137 0.0 1.0 0.00 0.31 0.00 93 1013.7
20260507020814 48 161 1.0 1.0 0.00 0.31 0.00 93 1013.7
20260507020405 48 158 1.0 1.0 0.00 0.31 0.00 93 1013.7
20260507020322 48 161 1.0 1.0 0.00 0.31 0.00 93 1013.7
20260507020127 48 178 1.0 2.0 0.00 0.31 0.00 93 1013.7
20260507020115 49 161 1.0 2.0 0.00 0.32 0.00 92 1014.4
20260507020025 48 178 1.0 2.0 0.00 0.31 0.00 93 1013.7
20260507015922 48 146 1.0 2.0 0.00 0.31 0.00 93 1013.7
20260507015840 49 161 1.0 2.0 0.00 0.31 0.00 93 1013.7
20260507015759 49 153 1.0 2.0 0.00 0.31 0.00 93 1013.7
20260507015510 49 146 1.0 2.0 0.00 0.31 0.00 93 1013.7
20260507015408 49 161 1.0 2.0 0.00 0.31 0.00 93 1013.7
20260507015306 49 178 1.0 2.0 0.00 0.31 0.00 93 1013.8
20260507015207 49 178 1.0 2.0 0.00 0.31 0.00 93 1013.7
20260507015107 49 165 1.0 2.0 0.00 0.31 0.00 93 1013.7
20260507015016 49 178 1.0 2.0 0.00 0.31 0.00 93 1013.8
20260507014935 49 178 1.0 2.0 0.00 0.31 0.00 93 1013.7
20260507014851 49 178 1.0 2.0 0.00 0.31 0.00 93 1013.8
20260507014604 49 165 1.0 3.0 0.00 0.31 0.00 93 1013.8
20260507014519 49 165 1.0 4.0 0.00 0.31 0.00 93 1013.8
20260507014438 49 178 1.0 4.0 0.00 0.31 0.00 93 1013.8
20260507014352 49 178 1.0 4.0 0.00 0.31 0.00 93 1013.8
20260507014124 49 178 1.0 4.0 0.00 0.31 0.00 93 1013.8
20260507014046 49 178 2.0 4.0 0.00 0.31 0.00 93 1013.8
20260507013910 48 170 2.0 4.0 0.00 0.32 0.00 92 1014.4
20260507013841 49 178 2.0 4.0 0.00 0.31 0.00 93 1013.7
20260507013753 49 168 2.0 4.0 0.00 0.31 0.00 93 1013.8
20260507013654 49 173 2.0 4.0 0.00 0.31 0.00 93 1013.8
20260507013629 48 171 2.0 4.0 0.00 0.32 0.00 92 1014.4
20260507013541 49 163 2.0 4.0 0.00 0.31 0.00 93 1013.8
20260507013437 49 171 2.0 2.0 0.00 0.31 0.00 93 1013.8
20260507013411 48 171 3.0 4.0 0.00 0.32 0.00 92 1014.5
20260507013339 49 170 1.0 2.0 0.00 0.31 0.00 93 1013.8
20260507013257 48 173 2.0 4.0 0.00 0.32 0.00 92 1014.5
20260507013230 49 205 1.0 2.0 0.00 0.31 0.00 93 1013.8
20260507013129 49 165 1.0 2.0 0.00 0.31 0.00 93 1013.8
20260507013053 48 171 2.0 5.0 0.00 0.32 0.00 92 1014.5
20260507013028 49 215 1.0 2.0 0.00 0.31 0.00 93 1013.8
20260507012941 49 196 1.0 2.0 0.00 0.31 0.00 93 1013.8
20260507012902 49 232 1.0 2.0 0.00 0.31 0.00 93 1013.9
20260507012620 49 178 1.0 2.0 0.00 0.31 0.00 93 1013.8
20260507012538 49 178 1.0 2.0 0.00 0.31 0.00 93 1013.8
20260507012500 49 178 1.0 2.0 0.00 0.31 0.00 93 1013.9
20260507012228 49 221 0.0 1.0 0.00 0.31 0.00 93 1013.8
20260507012148 49 291 0.0 1.0 0.00 0.31 0.00 93 1013.9
20260507011908 49 309 0.0 1.0 0.00 0.31 0.00 93 1013.9
20260507011817 49 309 0.0 1.0 0.00 0.31 0.00 93 1013.9
20260507011743 49 309 0.0 1.0 0.00 0.31 0.00 93 1013.9
20260507011555 48 171 3.0 4.0 0.00 0.32 0.00 92 1014.5
20260507011512 49 309 0.0 2.0 0.00 0.31 0.00 93 1014.0
20260507011434 49 309 0.0 2.0 0.00 0.31 0.00 93 1013.9
20260507011358 49 111 0.0 2.0 0.00 0.31 0.00 93 1013.9
20260507011159 49 34 0.0 2.0 0.00 0.31 0.00 93 1013.9
20260507011059 49 26 1.0 2.0 0.00 0.31 0.00 93 1013.9
20260507010854 49 146 1.0 2.0 0.00 0.31 0.00 93 1014.0
20260507010756 49 137 1.0 3.0 0.00 0.31 0.00 93 1014.0
20260507010716 49 161 1.0 4.0 0.00 0.31 0.00 93 1013.9
20260507010630 49 165 1.0 4.0 0.00 0.31 0.00 93 1013.9
20260507010348 49 146 1.0 4.0 0.00 0.31 0.00 93 1014.0
20260507010247 49 126 2.0 4.0 0.00 0.31 0.00 93 1014.0
20260507010148 49 111 2.0 4.0 0.00 0.31 0.00 93 1014.0
20260507010046 49 105 2.0 4.0 0.00 0.31 0.00 93 1014.0
20260507010011 48 265 1.0 2.0 0.00 0.33 0.00 91 1014.5
20260507005945 49 105 2.0 4.0 0.00 0.31 0.00 93 1014.0
20260507005905 49 102 3.0 4.0 0.00 0.31 0.00 93 1014.0
20260507005823 49 111 3.0 4.0 0.00 0.31 0.00 93 1014.0
20260507005538 49 110 1.0 2.0 0.00 0.31 0.00 93 1014.2
20260507005437 49 115 1.0 2.0 0.00 0.31 0.00 93 1014.2
20260507005418 48 161 1.0 4.0 0.00 0.35 0.00 91 1014.4
20260507005335 49 137 1.0 2.0 0.00 0.31 0.00 93 1014.0
20260507005305 48 325 1.0 4.0 0.00 0.35 0.00 91 1014.4
20260507005237 49 178 1.0 2.0 0.00 0.31 0.00 93 1014.2
20260507005224 48 265 2.0 4.0 0.00 0.35 0.00 91 1014.4
20260507005136 49 178 1.0 2.0 0.00 0.31 0.00 93 1014.2
20260507005018 49 161 1.0 4.0 0.00 0.31 0.00 93 1014.2
20260507004938 48 196 2.0 5.0 0.00 0.35 0.00 91 1014.4
20260507004919 49 161 0.0 4.0 0.00 0.31 0.00 93 1014.2
20260507004815 49 153 0.0 4.0 0.00 0.31 0.00 93 1014.3
20260507004735 49 205 0.0 4.0 0.00 0.31 0.00 93 1014.3
20260507004652 49 153 0.0 4.0 0.00 0.31 0.00 93 1014.3
20260507004614 49 178 1.0 4.0 0.00 0.31 0.00 93 1014.2
20260507004536 49 232 1.0 4.0 0.00 0.31 0.00 93 1014.2
20260507004135 48 167 2.0 3.0 0.00 0.35 0.00 91 1014.4
20260507004113 49 163 1.0 4.0 0.00 0.31 0.00 93 1014.3
20260507004025 49 178 1.0 2.0 0.00 0.31 0.00 93 1014.3
20260507003945 49 205 1.0 2.0 0.00 0.31 0.00 93 1014.3
20260507003903 49 215 1.0 2.0 0.00 0.31 0.00 93 1014.3
20260507003637 49 165 1.0 2.0 0.00 0.31 0.00 93 1014.3
20260507003558 49 178 1.0 1.0 0.00 0.31 0.00 93 1014.4
20260507003347 48 161 1.0 3.0 0.00 0.35 0.00 91 1014.4
20260507003304 49 265 0.0 2.0 0.00 0.31 0.00 93 1014.4
20260507003204 49 238 0.0 2.0 0.00 0.31 0.00 93 1014.4
20260507003125 49 161 2.0 3.0 0.00 0.35 0.35 91 1014.4
20260507003101 49 137 0.0 2.0 0.00 0.31 0.00 93 1014.4
20260507003034 49 161 2.0 3.0 0.00 0.35 0.35 91 1014.4
20260507003001 49 137 0.0 2.0 0.00 0.31 0.00 93 1014.4
20260507002924 49 153 2.0 2.0 0.00 0.35 0.35 91 1014.3
20260507002858 49 178 0.0 2.0 0.00 0.31 0.00 93 1014.4
20260507002839 49 149 1.0 5.0 0.00 0.35 0.35 91 1014.4
20260507002756 49 178 1.0 3.0 0.00 0.31 0.00 93 1014.4
20260507002658 49 137 1.0 3.0 0.00 0.31 0.00 93 1014.4
20260507002559 49 146 1.0 3.0 0.00 0.31 0.00 93 1014.4
20260507002521 49 126 1.0 3.0 0.00 0.31 0.00 93 1014.4
20260507002438 49 51 1.0 3.0 0.00 0.31 0.00 93 1014.4
20260507002400 49 93 1.0 3.0 0.00 0.31 0.00 93 1014.4
20260507002130 49 126 2.0 3.0 0.00 0.31 0.00 93 1014.4
20260507001921 49 144 4.0 5.0 0.00 0.35 0.35 91 1014.3
20260507001848 49 123 2.0 4.0 0.00 0.31 0.00 93 1014.4
20260507001750 49 102 2.0 4.0 0.00 0.31 0.00 93 1014.5
20260507001734 49 157 3.0 5.0 0.00 0.35 0.35 91 1014.4
20260507001645 49 116 2.0 4.0 0.00 0.31 0.00 93 1014.4
20260507001545 49 126 2.0 4.0 0.00 0.31 0.00 93 1014.5
20260507001442 49 126 2.0 4.0 0.00 0.31 0.00 93 1014.4
20260507001358 49 116 2.0 4.0 0.00 0.31 0.00 93 1014.4
20260507001315 49 123 3.0 4.0 0.00 0.31 0.00 93 1014.4
20260507001229 49 108 3.0 4.0 0.00 0.31 0.00 93 1014.4
20260507001003 49 109 1.0 3.0 0.00 0.31 0.00 93 1014.5
20260507000908 49 115 1.0 2.0 0.00 0.31 0.00 93 1014.4
20260507000827 49 119 1.0 2.0 0.00 0.31 0.00 93 1014.4
20260507000734 49 111 1.0 2.0 0.00 0.31 0.00 93 1014.4
20260507000446 49 153 1.0 2.0 0.00 0.31 0.00 93 1014.5
20260507000405 49 153 1.0 2.0 0.00 0.31 0.00 93 1014.4
20260507000306 49 153 1.0 2.0 0.00 0.31 0.00 93 1014.4
20260507000224 49 153 1.0 2.0 0.00 0.31 0.00 93 1014.4
20260507000145 49 146 1.0 2.0 0.00 0.31 0.00 93 1014.4
20260507000042 49 153 1.0 2.0 0.00 0.31 0.00 93 1014.4
20260507000005 49 146 1.0 2.0 0.00 0.31 0.00 93 1014.4
20260506235926 49 146 1.0 2.0 0.00 0.31 0.00 93 1014.4
20260506235842 49 144 1.0 2.0 0.00 0.31 0.00 93 1014.4
20260506235623 49 137 1.0 2.0 0.00 0.31 0.00 93 1014.4
20260506235542 49 129 1.0 4.0 0.00 0.31 0.00 93 1014.4
20260506235448 49 144 1.0 4.0 0.00 0.31 0.00 93 1014.4
20260506235217 49 119 1.0 4.0 0.00 0.31 0.00 93 1014.5
20260506234624 49 126 1.0 4.0 0.00 0.32 0.00 93 1014.5
20260506234543 49 146 2.0 4.0 0.00 0.32 0.00 93 1014.4
20260506234502 49 165 2.0 4.0 0.00 0.32 0.00 93 1014.4
20260506234422 49 163 2.0 4.0 0.00 0.32 0.00 93 1014.4
20260506234338 49 163 2.0 4.0 0.00 0.32 0.00 93 1014.4
20260506234111 49 161 2.0 2.0 0.00 0.32 0.00 93 1014.4
20260506233648 49 153 2.0 2.0 0.00 0.32 0.00 92 1014.4
20260506233548 49 158 1.0 2.0 0.00 0.32 0.00 92 1014.4
20260506233451 49 161 1.0 2.0 0.00 0.32 0.00 92 1014.4
20260506233335 49 170 1.0 2.0 0.00 0.32 0.00 92 1014.4
20260506233239 49 158 1.0 2.0 0.00 0.32 0.00 92 1014.4
20260506233135 49 161 1.0 4.0 0.00 0.32 0.00 92 1014.5
20260506233037 49 137 1.0 4.0 0.00 0.32 0.00 92 1014.5
20260506233026 50 178 1.0 2.0 0.00 0.35 0.35 91 1014.4
20260506232937 49 205 1.0 4.0 0.00 0.32 0.00 92 1014.5
20260506232926 50 161 1.0 4.0 0.00 0.35 0.35 91 1014.4
20260506232833 49 153 1.0 4.0 0.00 0.32 0.00 92 1014.4
20260506232748 49 168 1.0 4.0 0.00 0.32 0.00 92 1014.4
20260506232709 48 153 1.0 4.0 0.00 0.32 0.00 92 1014.5
20260506232622 48 153 1.0 4.0 0.00 0.32 0.00 92 1014.5
20260506232537 48 153 2.0 4.0 0.00 0.32 0.00 92 1014.5
20260506232453 48 161 2.0 4.0 0.00 0.32 0.00 92 1014.5
20260506232405 48 163 2.0 4.0 0.00 0.32 0.00 92 1014.5
20260506232312 48 158 2.0 4.0 0.00 0.32 0.00 92 1014.5
20260506232227 48 165 2.0 4.0 0.00 0.32 0.00 92 1014.4
20260506231822 48 161 2.0 4.0 0.00 0.32 0.00 92 1014.6
20260506231558 48 196 2.0 4.0 0.00 0.32 0.00 92 1014.5
20260506231517 48 205 1.0 4.0 0.00 0.32 0.00 92 1014.5
20260506231435 48 178 2.0 4.0 0.00 0.32 0.00 92 1014.5
20260506231343 48 168 2.0 4.0 0.00 0.32 0.00 92 1014.5
20260506230943 50 170 2.0 4.0 0.00 0.35 0.35 91 1014.3
20260506230912 48 173 2.0 4.0 0.00 0.32 0.00 92 1014.5
20260506230829 48 205 2.0 4.0 0.00 0.32 0.00 92 1014.5
20260506230745 48 170 3.0 4.0 0.00 0.32 0.00 92 1014.5
20260506230702 48 173 2.0 5.0 0.00 0.32 0.00 92 1014.5
20260506230409 48 170 1.0 5.0 0.00 0.32 0.00 92 1014.5
20260506230306 48 178 1.0 5.0 0.00 0.32 0.00 92 1014.6
20260506230205 48 190 2.0 5.0 0.00 0.32 0.00 92 1014.5
20260506230103 48 196 2.0 5.0 0.00 0.32 0.00 92 1014.6
20260506225957 48 171 2.0 5.0 0.00 0.32 0.00 92 1014.5
20260506225905 48 171 3.0 5.0 0.00 0.32 0.00 92 1014.5
20260506225822 48 161 3.0 5.0 0.00 0.32 0.00 92 1014.5
20260506225738 48 168 2.0 5.0 0.00 0.32 0.00 92 1014.5
20260506225656 48 171 2.0 4.0 0.00 0.32 0.00 92 1014.5
20260506225433 48 161 2.0 4.0 0.00 0.32 0.00 92 1014.5
20260506225154 48 167 2.0 4.0 0.00 0.32 0.00 92 1014.6
20260506225053 48 171 1.0 4.0 0.00 0.32 0.00 92 1014.6
20260506224953 48 173 1.0 4.0 0.00 0.32 0.00 92 1014.6
20260506224941 51 157 2.0 3.0 0.00 0.35 0.35 91 1014.3
20260506224852 48 227 1.0 4.0 0.00 0.32 0.00 92 1014.5
20260506224748 48 170 1.0 4.0 0.00 0.32 0.00 92 1014.5
20260506224700 48 168 1.0 2.0 0.00 0.32 0.00 92 1014.5
20260506224615 48 221 1.0 2.0 0.00 0.32 0.00 92 1014.5
20260506224536 48 193 0.0 2.0 0.00 0.32 0.00 92 1014.6
20260506224344 48 205 0.0 2.0 0.00 0.32 0.00 92 1014.5
20260506224304 51 153 1.0 3.0 0.00 0.35 0.35 91 1014.0
20260506224243 48 193 1.0 2.0 0.00 0.32 0.00 92 1014.5
20260506224142 48 178 1.0 2.0 0.00 0.32 0.00 92 1014.5
20260506224040 48 178 1.0 2.0 0.00 0.32 0.00 92 1014.5
20260506223955 51 149 1.0 4.0 0.00 0.35 0.35 91 1013.9
20260506223939 48 158 0.0 2.0 0.00 0.32 0.00 92 1014.5
20260506223838 48 178 0.0 2.0 0.00 0.32 0.00 92 1014.5
20260506223737 48 161 0.0 2.0 0.00 0.32 0.00 92 1014.6
20260506223721 51 161 1.0 4.0 0.00 0.35 0.35 91 1013.8
20260506223646 51 157 1.0 2.0 0.00 0.35 0.35 91 1013.8
20260506223632 48 161 1.0 2.0 0.00 0.32 0.00 92 1014.5
20260506223534 48 196 1.0 2.0 0.00 0.33 0.00 92 1014.5
20260506223454 51 108 1.0 2.0 0.00 0.35 0.35 91 1013.7
20260506223432 48 178 1.0 2.0 0.00 0.33 0.00 92 1014.5
20260506223345 48 196 0.0 2.0 0.00 0.33 0.00 92 1014.5
20260506223307 48 205 0.0 2.0 0.00 0.33 0.00 91 1014.5
20260506223103 51 129 1.0 2.0 0.00 0.35 0.35 91 1013.6
20260506223028 48 215 1.0 2.0 0.00 0.33 0.00 91 1014.4
20260506222936 48 178 1.0 3.0 0.00 0.34 0.00 91 1014.5
20260506222857 48 178 1.0 3.0 0.00 0.35 0.00 91 1014.5
20260506222817 48 309 1.0 4.0 0.00 0.35 0.00 91 1014.5
20260506222738 48 295 0.0 4.0 0.00 0.35 0.00 91 1014.5
20260506222522 48 282 1.0 4.0 0.00 0.35 0.00 91 1014.4
20260506222442 48 161 1.0 4.0 0.00 0.35 0.00 91 1014.5
20260506222015 48 170 2.0 4.0 0.00 0.35 0.00 91 1014.4
20260506221914 48 205 2.0 4.0 0.00 0.35 0.00 91 1014.5
20260506221813 48 178 2.0 4.0 0.00 0.35 0.00 91 1014.4
20260506221741 52 165 0.0 4.0 0.00 0.35 0.35 91 1013.5
20260506221713 48 165 2.0 5.0 0.00 0.35 0.00 91 1014.4
20260506221612 48 163 1.0 5.0 0.00 0.35 0.00 91 1014.4
20260506221550 52 158 2.0 4.0 0.00 0.35 0.35 91 1013.4
20260506221511 48 193 0.0 5.0 0.00 0.35 0.00 91 1014.4
20260506221501 52 144 2.0 4.0 0.00 0.35 0.35 91 1013.4
20260506221413 48 205 0.0 5.0 0.00 0.35 0.00 91 1014.4
20260506221337 48 178 0.0 5.0 0.00 0.35 0.00 91 1014.4
20260506221256 48 178 1.0 5.0 0.00 0.35 0.00 91 1014.5
20260506221029 48 178 3.0 5.0 0.00 0.35 0.00 91 1014.5
20260506220937 48 161 4.0 5.0 0.00 0.35 0.00 91 1014.5
20260506220855 48 175 3.0 5.0 0.00 0.35 0.00 91 1014.4
20260506220809 48 165 2.0 5.0 0.00 0.35 0.00 91 1014.4
20260506220538 48 153 1.0 3.0 0.00 0.35 0.00 91 1014.4
20260506220307 49 146 1.0 3.0 0.00 0.35 0.00 91 1014.4
20260506220222 49 168 1.0 3.0 0.00 0.35 0.00 91 1014.4
20260506220139 49 168 1.0 3.0 0.00 0.35 0.00 91 1014.4
20260506220053 49 161 1.0 3.0 0.00 0.35 0.35 91 1014.3
20260506220002 49 137 2.0 3.0 0.00 0.35 0.35 91 1014.4
20260506215921 49 149 2.0 3.0 0.00 0.35 0.35 91 1014.3
20260506215507 49 171 2.0 2.0 0.00 0.35 0.35 91 1014.4
20260506215425 49 158 2.0 2.0 0.00 0.35 0.35 91 1014.4
20260506215201 49 158 1.0 2.0 0.00 0.35 0.35 91 1014.4
20260506215113 49 153 1.0 4.0 0.00 0.35 0.35 91 1014.4
20260506214828 49 137 1.0 5.0 0.00 0.35 0.35 91 1014.4
20260506214753 52 159 2.0 4.0 0.00 0.35 0.35 91 1013.3
20260506214725 49 161 1.0 5.0 0.00 0.35 0.35 91 1014.4
20260506214628 49 149 1.0 5.0 0.00 0.35 0.35 91 1014.4
20260506214525 49 165 1.0 5.0 0.00 0.35 0.35 91 1014.4
20260506214502 52 159 2.0 4.0 0.00 0.35 0.35 91 1013.1
20260506214427 49 161 1.0 5.0 0.00 0.35 0.35 91 1014.3
20260506214347 49 146 1.0 5.0 0.00 0.35 0.35 91 1014.4
20260506214310 49 153 2.0 5.0 0.00 0.35 0.35 91 1014.4
20260506214013 49 171 4.0 5.0 0.00 0.35 0.35 91 1014.4
20260506213926 49 167 3.0 5.0 0.00 0.35 0.35 91 1014.4
20260506213846 49 168 2.0 5.0 0.00 0.35 0.35 91 1014.4
20260506213602 49 167 3.0 5.0 0.00 0.35 0.35 91 1014.3
20260506213514 49 165 3.0 5.0 0.00 0.35 0.35 91 1014.4
20260506213434 49 165 4.0 5.0 0.00 0.35 0.35 91 1014.3
20260506213354 49 165 4.0 5.0 0.00 0.35 0.35 91 1014.3
20260506213157 49 170 3.0 4.0 0.00 0.35 0.35 91 1014.3
20260506213055 49 164 3.0 4.0 0.00 0.35 0.35 91 1014.3
20260506213015 53 178 1.0 2.0 0.00 0.35 0.35 91 1013.0
20260506212952 49 167 2.0 4.0 0.00 0.35 0.35 91 1014.4
20260506212938 53 158 1.0 2.0 0.00 0.35 0.35 91 1013.0
20260506212913 53 168 1.0 2.0 0.00 0.35 0.35 91 1013.0
20260506212851 49 161 2.0 4.0 0.00 0.35 0.35 91 1014.3
20260506212808 53 168 2.0 2.0 0.00 0.35 0.35 92 1013.0
20260506212752 49 165 2.0 4.0 0.00 0.35 0.35 91 1014.3
20260506212648 49 161 2.0 4.0 0.00 0.35 0.35 91 1014.3
20260506212549 49 168 2.0 4.0 0.00 0.35 0.35 91 1014.3
20260506212447 49 165 2.0 4.0 0.00 0.35 0.35 91 1014.3
20260506212349 49 153 2.0 4.0 0.00 0.35 0.35 91 1014.2
20260506212244 49 159 2.0 4.0 0.00 0.35 0.35 91 1014.3
20260506212146 49 157 2.0 3.0 0.00 0.35 0.35 91 1014.3
20260506212042 49 157 2.0 2.0 0.00 0.35 0.35 91 1014.3
20260506211941 49 168 1.0 2.0 0.00 0.35 0.35 91 1014.2
20260506211840 49 161 1.0 2.0 0.00 0.35 0.35 91 1014.3
20260506211820 53 165 1.0 5.0 0.00 0.35 0.35 92 1012.7
20260506211741 49 165 1.0 2.0 0.00 0.35 0.35 91 1014.3
20260506211637 50 178 1.0 2.0 0.00 0.35 0.35 91 1014.3
20260506211556 53 171 2.0 5.0 0.01 0.35 0.35 92 1012.7
20260506211539 50 178 1.0 2.0 0.00 0.35 0.35 91 1014.3
20260506211436 50 137 1.0 2.0 0.00 0.35 0.35 91 1014.3
20260506211332 50 165 1.0 2.0 0.00 0.35 0.35 91 1014.3
20260506211235 50 168 1.0 2.0 0.00 0.35 0.35 91 1014.3
20260506211151 50 161 1.0 2.0 0.00 0.35 0.35 91 1014.3
20260506211053 50 158 1.0 2.0 0.00 0.35 0.35 91 1014.3
20260506211011 50 168 1.0 2.0 0.00 0.35 0.35 91 1014.3
20260506210929 50 178 0.0 2.0 0.00 0.35 0.35 91 1014.4
20260506210836 50 161 1.0 2.0 0.00 0.35 0.35 91 1014.3
20260506210600 50 168 1.0 4.0 0.00 0.35 0.35 91 1014.4
20260506210338 50 153 1.0 4.0 0.00 0.35 0.35 91 1014.4
20260506210254 50 178 1.0 4.0 0.00 0.35 0.35 91 1014.4
20260506210211 50 170 1.0 4.0 0.00 0.35 0.35 91 1014.4
20260506205942 53 178 1.0 3.0 0.01 0.35 0.35 92 1012.6
20260506205912 50 168 2.0 4.0 0.00 0.35 0.35 91 1014.3
20260506205843 53 205 1.0 3.0 0.01 0.35 0.35 92 1012.6
20260506205813 50 159 2.0 4.0 0.00 0.35 0.35 91 1014.4
20260506205802 53 178 1.0 3.0 0.01 0.35 0.35 92 1012.6
20260506205707 50 178 2.0 4.0 0.00 0.35 0.35 91 1014.3
20260506205618 50 159 2.0 4.0 0.00 0.35 0.35 91 1014.3
20260506205534 50 167 1.0 4.0 0.00 0.35 0.35 91 1014.4
20260506205452 50 158 1.0 4.0 0.00 0.35 0.35 91 1014.4
20260506205306 50 144 2.0 4.0 0.00 0.35 0.35 91 1014.4
20260506205204 50 123 1.0 4.0 0.00 0.35 0.35 91 1014.4
20260506205123 53 265 1.0 2.0 0.01 0.35 0.35 92 1012.6
20260506205102 50 116 1.0 4.0 0.00 0.35 0.35 91 1014.4
20260506205003 50 137 2.0 4.0 0.00 0.35 0.35 91 1014.4
20260506204859 50 161 2.0 4.0 0.00 0.35 0.35 91 1014.4
20260506204831 53 149 1.0 4.0 0.01 0.35 0.35 92 1012.5
20260506204800 50 165 2.0 4.0 0.00 0.35 0.35 91 1014.4
20260506204656 50 161 2.0 4.0 0.00 0.35 0.35 91 1014.4
20260506204554 50 167 2.0 4.0 0.00 0.35 0.35 91 1014.3
20260506204451 50 160 2.0 4.0 0.00 0.35 0.35 91 1014.3
20260506204349 50 165 2.0 4.0 0.00 0.35 0.35 91 1014.4
20260506204250 50 158 2.0 4.0 0.00 0.35 0.35 91 1014.3
20260506204148 50 153 2.0 4.0 0.00 0.35 0.35 91 1014.3
20260506204050 51 170 2.0 4.0 0.00 0.35 0.35 91 1014.3
20260506204005 53 330 0.0 3.0 0.03 0.35 0.35 91 1012.3
20260506203949 51 171 2.0 4.0 0.00 0.35 0.35 91 1014.3
20260506203848 51 163 2.0 4.0 0.00 0.35 0.35 91 1014.3
20260506203808 51 165 2.0 4.0 0.00 0.35 0.35 91 1014.2
20260506203727 51 163 2.0 4.0 0.00 0.35 0.35 91 1014.3
20260506203441 51 165 2.0 3.0 0.00 0.35 0.35 91 1014.2
20260506203338 51 163 1.0 2.0 0.00 0.35 0.35 91 1014.2
20260506203247 51 158 1.0 2.0 0.00 0.35 0.35 91 1014.2
20260506203200 51 158 1.0 2.0 0.00 0.35 0.35 91 1014.3
20260506203118 51 149 1.0 2.0 0.00 0.35 0.35 91 1014.2
20260506202851 51 149 1.0 3.0 0.00 0.35 0.35 91 1014.2
20260506202811 51 149 1.0 3.0 0.00 0.35 0.35 91 1014.2
20260506202527 51 153 1.0 3.0 0.00 0.35 0.35 91 1014.2
20260506202452 53 304 2.0 3.0 0.15 0.34 0.34 91 1012.3
20260506202428 51 168 1.0 3.0 0.00 0.35 0.35 91 1014.2
20260506202413 53 291 1.0 3.0 0.15 0.34 0.34 91 1012.2
20260506202322 51 161 1.0 4.0 0.00 0.35 0.35 91 1014.0
20260506202305 53 146 1.0 5.0 0.15 0.34 0.34 91 1012.2
20260506202224 51 153 1.0 4.0 0.00 0.35 0.35 91 1014.0
20260506202123 51 149 2.0 4.0 0.00 0.35 0.35 91 1014.0
20260506202028 51 144 2.0 4.0 0.00 0.35 0.35 91 1014.0
20260506201940 51 158 2.0 4.0 0.00 0.35 0.35 91 1014.0
20260506201904 51 144 2.0 4.0 0.00 0.35 0.35 91 1013.9
20260506201638 51 153 2.0 4.0 0.00 0.35 0.35 91 1013.8
20260506201554 51 153 2.0 4.0 0.00 0.35 0.35 91 1013.8
20260506201509 51 144 2.0 4.0 0.00 0.35 0.35 91 1013.9
20260506201414 51 159 3.0 4.0 0.00 0.35 0.35 91 1013.9
20260506201332 51 169 3.0 4.0 0.00 0.35 0.35 91 1013.9
20260506201047 51 160 1.0 2.0 0.00 0.35 0.35 91 1013.8
20260506200822 51 153 1.0 2.0 0.00 0.35 0.35 91 1013.8
20260506200745 51 115 1.0 2.0 0.00 0.35 0.35 91 1013.7
20260506200701 51 137 1.0 2.0 0.00 0.35 0.35 91 1013.8
20260506200606 51 119 1.0 2.0 0.00 0.35 0.35 91 1013.7
20260506200341 51 108 1.0 2.0 0.00 0.35 0.35 91 1013.7
20260506200108 52 129 1.0 2.0 0.00 0.35 0.35 91 1013.6
20260506195951 52 153 1.0 2.0 0.00 0.35 0.35 91 1013.7
20260506195910 53 178 2.0 5.0 0.24 0.34 0.34 90 1012.0
20260506195853 52 137 1.0 2.0 0.00 0.35 0.35 91 1013.6
20260506195752 52 161 1.0 2.0 0.00 0.35 0.35 91 1013.6
20260506195655 52 153 1.0 2.0 0.00 0.35 0.35 91 1013.6
20260506195641 53 221 1.0 9.0 0.26 0.33 0.33 90 1012.1
20260506195549 52 144 2.0 2.0 0.00 0.35 0.35 91 1013.6
20260506195502 52 153 1.0 2.0 0.00 0.35 0.35 91 1013.5
20260506195421 52 153 1.0 4.0 0.00 0.35 0.35 91 1013.5
20260506195340 52 158 1.0 4.0 0.00 0.35 0.35 91 1013.5
20260506195244 52 170 1.0 4.0 0.00 0.35 0.35 91 1013.5
20260506195016 52 178 0.0 4.0 0.00 0.35 0.35 91 1013.5
20260506194938 52 178 0.0 4.0 0.00 0.35 0.35 91 1013.5
20260506194856 52 165 1.0 4.0 0.00 0.35 0.35 91 1013.4
20260506194434 53 221 1.0 9.0 0.28 0.33 0.33 90 1012.0
20260506194418 52 163 2.0 4.0 0.00 0.35 0.35 91 1013.4
20260506194316 52 171 2.0 4.0 0.00 0.35 0.35 91 1013.3
20260506194219 52 161 3.0 4.0 0.00 0.35 0.35 91 1013.3
20260506194200 53 221 4.0 9.0 0.28 0.33 0.33 90 1011.9
20260506194124 52 167 2.0 4.0 0.00 0.35 0.35 91 1013.3
20260506194040 52 168 2.0 4.0 0.00 0.35 0.35 91 1013.2
20260506193958 52 165 2.0 4.0 0.00 0.35 0.35 91 1013.3
20260506193745 53 221 8.0 14.0 0.27 0.32 0.33 90 1011.9
20260506193706 52 163 2.0 4.0 0.00 0.35 0.35 91 1013.2
20260506193604 52 165 2.0 4.0 0.00 0.35 0.35 91 1013.2
20260506193513 52 163 2.0 4.0 0.00 0.35 0.35 91 1013.2
20260506193426 52 163 2.0 4.0 0.00 0.35 0.35 91 1013.2
20260506193347 52 161 2.0 4.0 0.00 0.35 0.35 91 1013.1
20260506193124 52 171 1.0 4.0 0.00 0.35 0.35 91 1013.2
20260506193040 53 161 1.0 4.0 0.00 0.35 0.35 91 1013.1
20260506192956 53 168 1.0 4.0 0.00 0.35 0.35 91 1013.1
20260506192917 53 178 2.0 4.0 0.00 0.35 0.35 91 1013.1
20260506192833 53 161 2.0 4.0 0.00 0.35 0.35 91 1013.1
20260506192611 53 168 2.0 4.0 0.00 0.35 0.35 91 1013.0
20260506192526 53 161 2.0 4.0 0.00 0.35 0.35 91 1013.1
20260506192445 53 173 2.0 4.0 0.00 0.35 0.35 91 1013.0
20260506192402 53 163 1.0 4.0 0.00 0.35 0.35 91 1013.1
20260506191811 53 193 1.0 2.0 0.00 0.35 0.35 91 1013.0
20260506191528 53 178 1.0 2.0 0.00 0.35 0.35 91 1013.0
20260506191422 53 171 1.0 2.0 0.00 0.35 0.35 91 1012.9
20260506191348 53 137 7.0 12.0 0.16 0.21 0.22 90 1011.9
20260506191327 53 205 0.0 1.0 0.00 0.35 0.35 92 1012.9
20260506191221 53 196 0.0 1.0 0.00 0.35 0.35 92 1012.9
20260506191138 53 178 0.0 1.0 0.00 0.35 0.35 92 1012.9
20260506191105 53 178 1.0 1.0 0.00 0.35 0.35 92 1012.9
20260506191023 53 178 0.0 1.0 0.00 0.35 0.35 92 1012.9
20260506190822 53 153 0.0 1.0 0.00 0.35 0.35 92 1012.9
20260506190735 53 219 6.0 12.0 0.16 0.20 0.20 90 1011.7
20260506190720 53 178 0.0 1.0 0.00 0.35 0.35 92 1012.9
20260506190621 53 153 0.0 1.0 0.00 0.35 0.35 92 1012.9
20260506190517 53 26 0.0 1.0 0.00 0.35 0.35 92 1012.8
20260506190417 53 334 0.0 2.0 0.00 0.35 0.35 92 1012.9
20260506190308 53 119 0.0 2.0 0.00 0.35 0.35 92 1012.8
20260506190210 53 137 0.0 2.0 0.00 0.35 0.35 92 1012.7
20260506190150 54 167 4.0 15.0 0.13 0.17 0.17 89 1011.3
20260506190112 53 146 1.0 2.0 0.00 0.35 0.35 92 1012.8
20260506190018 54 185 6.0 15.0 0.13 0.16 0.16 89 1011.3
20260506190000 53 196 0.0 2.0 0.00 0.35 0.35 92 1012.7
20260506185858 53 165 0.0 2.0 0.00 0.35 0.35 92 1012.8
20260506185820 54 178 8.0 15.0 0.12 0.15 0.15 88 1011.1
20260506185758 53 193 0.0 2.0 0.00 0.35 0.35 92 1012.7
20260506185658 53 146 0.0 2.0 0.00 0.35 0.35 92 1012.7
20260506185551 53 178 1.0 2.0 0.00 0.35 0.35 92 1012.7
20260506185522 55 178 9.0 18.0 0.05 0.09 0.08 87 1011.1
20260506185451 53 178 1.0 2.0 0.00 0.35 0.35 92 1012.7
20260506185355 53 137 1.0 2.0 0.00 0.35 0.35 92 1012.7
20260506185315 53 161 1.0 5.0 0.00 0.35 0.35 92 1012.8
20260506185231 53 178 1.0 5.0 0.00 0.35 0.35 92 1012.7
20260506185038 55 175 8.0 18.0 0.02 0.06 0.06 86 1011.1
20260506184955 53 153 1.0 5.0 0.00 0.35 0.35 92 1012.7
20260506184900 53 170 1.0 5.0 0.00 0.35 0.35 92 1012.7
20260506184819 53 193 1.0 5.0 0.01 0.35 0.35 92 1012.8
20260506184735 53 232 1.0 5.0 0.01 0.35 0.35 92 1012.8
20260506184659 53 178 2.0 5.0 0.01 0.35 0.35 92 1012.7
20260506184431 53 175 1.0 4.0 0.01 0.35 0.35 92 1012.7
20260506184244 53 178 1.0 2.0 0.01 0.35 0.35 92 1012.7
20260506184203 53 161 1.0 2.0 0.01 0.35 0.35 92 1012.6
20260506184118 53 158 1.0 2.0 0.01 0.35 0.35 92 1012.6
20260506184033 53 190 1.0 2.0 0.01 0.35 0.35 92 1012.6
20260506183951 53 153 1.0 3.0 0.01 0.35 0.35 92 1012.6
20260506183328 55 167 9.0 18.0 0.02 0.06 0.06 85 1011.1
20260506183310 53 153 1.0 3.0 0.01 0.35 0.35 92 1012.5
20260506183233 53 178 1.0 3.0 0.01 0.35 0.35 92 1012.6
20260506183148 53 200 1.0 3.0 0.01 0.35 0.35 92 1012.6
20260506182905 53 170 2.0 3.0 0.01 0.35 0.35 92 1012.6
20260506182805 53 178 1.0 3.0 0.01 0.35 0.35 92 1012.6
20260506182725 53 137 1.0 2.0 0.01 0.35 0.35 92 1012.5
20260506182643 53 153 0.0 2.0 0.01 0.35 0.35 92 1012.6
20260506182400 53 196 1.0 2.0 0.01 0.35 0.35 92 1012.5
20260506182300 53 137 1.0 2.0 0.01 0.35 0.35 92 1012.5
20260506182205 53 196 1.0 2.0 0.01 0.35 0.35 92 1012.5
20260506182120 53 178 1.0 2.0 0.01 0.35 0.35 92 1012.5
20260506182041 53 212 1.0 4.0 0.01 0.35 0.35 92 1012.5
20260506181753 53 221 1.0 4.0 0.01 0.35 0.35 92 1012.5
20260506181651 53 205 0.0 4.0 0.01 0.35 0.35 92 1012.5
20260506181551 53 193 0.0 4.0 0.01 0.35 0.35 92 1012.5
20260506181451 53 153 0.0 4.0 0.01 0.35 0.35 92 1012.4
20260506181420 60 317 8.0 12.0 0.00 0.09 0.03 71 1010.7
20260506181347 53 221 1.0 4.0 0.01 0.35 0.35 92 1012.4
20260506181303 53 178 1.0 4.0 0.01 0.35 0.35 92 1012.5
20260506181215 53 265 1.0 4.0 0.01 0.35 0.35 92 1012.5
20260506181134 53 168 1.0 4.0 0.02 0.35 0.35 92 1012.4
20260506180940 53 93 1.0 5.0 0.02 0.35 0.35 92 1012.4
20260506180836 53 153 1.0 5.0 0.02 0.35 0.35 92 1012.4
20260506180735 53 153 1.0 5.0 0.02 0.35 0.35 92 1012.5
20260506180634 53 153 1.0 5.0 0.02 0.35 0.35 92 1012.4
20260506180533 53 144 1.0 5.0 0.02 0.35 0.35 92 1012.4
20260506180432 53 221 1.0 5.0 0.02 0.35 0.35 92 1012.3
20260506180327 53 295 1.0 5.0 0.02 0.35 0.35 92 1012.3
20260506180228 53 319 2.0 5.0 0.02 0.35 0.35 92 1012.4
20260506180214 60 325 7.0 14.0 0.00 0.14 0.03 69 1010.6
20260506180128 53 163 1.0 5.0 0.02 0.35 0.35 91 1012.4
20260506180029 53 280 0.0 2.0 0.02 0.35 0.35 91 1012.4
20260506180013 60 334 6.0 16.0 0.00 0.15 0.03 70 1010.5
20260506175927 53 126 1.0 2.0 0.02 0.35 0.35 91 1012.3
20260506175844 53 137 1.0 3.0 0.03 0.35 0.35 91 1012.3
20260506175805 53 146 1.0 3.0 0.03 0.35 0.35 91 1012.3
20260506175604 60 337 10.0 16.0 0.00 0.15 0.03 68 1010.6
20260506175520 53 178 0.0 3.0 0.06 0.35 0.35 91 1012.3
20260506175502 60 24 7.0 16.0 0.00 0.16 0.03 68 1010.5
20260506175421 53 265 0.0 3.0 0.08 0.35 0.35 91 1012.3
20260506175407 60 331 8.0 16.0 0.00 0.16 0.03 69 1010.5
20260506175341 60 340 11.0 16.0 0.00 0.16 0.03 68 1010.5
20260506175319 53 137 1.0 3.0 0.11 0.35 0.35 91 1012.3
20260506175239 61 344 11.0 16.0 0.00 0.16 0.03 66 1010.5
20260506175218 53 137 1.0 3.0 0.13 0.35 0.35 91 1012.3
20260506175114 53 41 1.0 3.0 0.13 0.35 0.35 91 1012.3
20260506175016 53 137 1.0 3.0 0.13 0.35 0.35 91 1012.3
20260506174930 53 144 1.0 3.0 0.14 0.35 0.35 91 1012.3
20260506174847 53 161 1.0 3.0 0.14 0.35 0.35 91 1012.3
20260506174807 53 157 1.0 3.0 0.14 0.34 0.34 91 1012.3
20260506174723 53 265 1.0 3.0 0.14 0.34 0.34 91 1012.2
20260506174640 53 319 1.0 3.0 0.14 0.34 0.34 91 1012.3
20260506174552 53 316 2.0 3.0 0.14 0.34 0.34 91 1012.3
20260506174142 53 250 1.0 4.0 0.15 0.34 0.34 91 1012.3
20260506174102 53 212 1.0 4.0 0.15 0.34 0.34 91 1012.2
20260506173834 53 273 1.0 5.0 0.15 0.34 0.34 91 1012.3
20260506173752 53 108 1.0 5.0 0.15 0.34 0.34 91 1012.2
20260506173556 53 126 1.0 5.0 0.15 0.34 0.34 91 1012.2
20260506173455 53 325 1.0 5.0 0.15 0.34 0.34 91 1012.2
20260506173353 53 178 2.0 5.0 0.16 0.34 0.34 91 1012.2
20260506173309 53 319 2.0 5.0 0.16 0.34 0.34 91 1012.3
20260506173229 53 170 2.0 5.0 0.16 0.34 0.34 91 1012.2
20260506173146 53 212 2.0 7.0 0.17 0.34 0.34 91 1012.2
20260506173054 53 161 2.0 7.0 0.17 0.34 0.34 91 1012.1
20260506172849 53 277 2.0 7.0 0.17 0.34 0.34 91 1012.2
20260506172746 53 178 1.0 7.0 0.18 0.34 0.34 91 1012.1
20260506172733 62 321 3.0 10.0 0.00 0.18 0.03 63 1010.4
20260506172646 53 165 1.0 7.0 0.18 0.34 0.34 91 1012.1
20260506172546 53 208 1.0 7.0 0.18 0.34 0.34 90 1012.2
20260506172442 53 115 2.0 7.0 0.18 0.34 0.34 90 1012.1
20260506172340 53 163 3.0 7.0 0.18 0.34 0.34 91 1012.1
20260506172239 53 302 2.0 7.0 0.18 0.34 0.34 91 1012.1
20260506172137 53 173 2.0 7.0 0.19 0.34 0.34 91 1012.1
20260506172044 53 304 2.0 7.0 0.20 0.34 0.34 90 1012.0
20260506172028 62 298 6.0 11.0 0.00 0.18 0.03 62 1010.5
20260506172004 62 324 5.0 11.0 0.00 0.18 0.03 63 1010.5
20260506171934 53 41 2.0 7.0 0.21 0.34 0.34 90 1012.1
20260506171835 53 9 1.0 7.0 0.23 0.34 0.34 90 1012.0
20260506171752 53 232 3.0 7.0 0.24 0.34 0.34 90 1012.1
20260506171709 53 170 3.0 7.0 0.24 0.34 0.34 90 1012.1
20260506171516 62 323 4.0 11.0 0.00 0.18 0.03 62 1010.6
20260506171428 53 171 2.0 5.0 0.25 0.34 0.34 90 1012.0
20260506171327 53 219 2.0 5.0 0.26 0.34 0.34 90 1012.0
20260506171244 53 221 1.0 2.0 0.26 0.34 0.34 90 1012.1
20260506171205 53 221 1.0 2.0 0.27 0.34 0.34 90 1012.0
20260506170942 53 221 1.0 9.0 0.28 0.33 0.33 90 1012.1
20260506170900 53 221 1.0 9.0 0.28 0.33 0.33 90 1012.0
20260506170824 53 221 1.0 9.0 0.28 0.33 0.33 90 1012.1
20260506170600 53 221 1.0 9.0 0.28 0.33 0.33 90 1012.0
20260506170518 53 221 1.0 9.0 0.28 0.33 0.33 90 1011.9
20260506170108 53 177 8.0 14.0 0.27 0.32 0.32 90 1011.9
20260506165956 53 177 8.0 14.0 0.27 0.32 0.32 90 1011.9
20260506165854 53 177 8.0 14.0 0.27 0.32 0.32 90 1011.9
20260506165818 62 333 9.0 13.0 0.00 0.18 0.03 60 1010.7
20260506165752 53 177 8.0 14.0 0.26 0.31 0.32 90 1011.8
20260506165733 62 294 8.0 13.0 0.00 0.18 0.03 62 1010.8
20260506165712 62 310 5.0 12.0 0.00 0.18 0.03 63 1010.8
20260506165653 53 177 8.0 14.0 0.26 0.31 0.31 90 1011.8
20260506165554 53 177 8.0 14.0 0.24 0.29 0.31 90 1011.9
20260506165511 53 177 7.0 14.0 0.21 0.27 0.28 90 1011.9
20260506165425 53 177 6.0 14.0 0.18 0.24 0.25 90 1011.9
20260506165345 53 171 5.0 12.0 0.17 0.22 0.23 90 1011.9
20260506165125 53 162 7.0 12.0 0.17 0.21 0.21 90 1011.8
20260506164846 53 163 7.0 12.0 0.16 0.20 0.20 90 1011.8
20260506164816 62 232 3.0 9.0 0.00 0.18 0.03 65 1010.8
20260506164747 53 163 8.0 12.0 0.16 0.20 0.20 90 1011.8
20260506164735 62 314 4.0 11.0 0.00 0.18 0.03 62 1010.7
20260506164705 53 164 6.0 12.0 0.15 0.20 0.20 90 1011.8
20260506164624 53 163 5.0 12.0 0.16 0.20 0.20 90 1011.7
20260506164343 53 163 6.0 12.0 0.17 0.20 0.20 90 1011.6
20260506164240 54 165 4.0 12.0 0.16 0.19 0.19 90 1011.6
20260506164141 54 175 4.0 10.0 0.16 0.19 0.19 90 1011.7
20260506164052 54 161 5.0 10.0 0.16 0.19 0.19 90 1011.8
20260506164013 54 148 5.0 10.0 0.16 0.19 0.19 90 1011.7
20260506163927 54 232 4.0 10.0 0.16 0.19 0.19 90 1011.6
20260506163734 54 167 4.0 10.0 0.16 0.19 0.19 90 1011.6
20260506163632 54 164 4.0 10.0 0.16 0.19 0.19 90 1011.6
20260506163613 62 338 5.0 13.0 0.00 0.18 0.03 62 1010.9
20260506163529 54 164 5.0 10.0 0.16 0.19 0.19 90 1011.5
20260506163447 54 171 7.0 12.0 0.15 0.18 0.19 90 1011.5
20260506163404 54 165 7.0 12.0 0.15 0.18 0.18 89 1011.3
20260506163327 54 159 6.0 12.0 0.15 0.18 0.18 89 1011.2
20260506163245 54 163 6.0 12.0 0.15 0.18 0.18 89 1011.2
20260506163201 54 147 5.0 14.0 0.14 0.17 0.17 89 1011.3
20260506162935 54 178 4.0 15.0 0.13 0.16 0.16 89 1011.2
20260506162853 54 183 6.0 15.0 0.13 0.16 0.16 89 1011.3
20260506162815 54 178 6.0 15.0 0.13 0.16 0.16 89 1011.2
20260506162551 54 171 7.0 15.0 0.13 0.16 0.16 88 1011.1
20260506162506 54 171 7.0 15.0 0.13 0.16 0.16 88 1011.2
20260506162424 54 177 8.0 15.0 0.12 0.15 0.16 88 1011.2
20260506162132 55 183 8.0 15.0 0.11 0.14 0.14 88 1011.2
20260506162024 55 173 5.0 14.0 0.09 0.13 0.13 88 1011.1
20260506161940 55 177 5.0 14.0 0.08 0.11 0.11 88 1011.2
20260506161859 55 178 4.0 14.0 0.07 0.10 0.10 87 1011.2
20260506161816 55 178 5.0 14.0 0.06 0.09 0.10 87 1011.1
20260506161736 55 175 8.0 14.0 0.06 0.09 0.09 87 1011.2
20260506161654 55 185 9.0 15.0 0.05 0.09 0.09 87 1011.2
20260506161402 55 175 9.0 18.0 0.05 0.09 0.08 86 1011.1
20260506161317 55 178 8.0 18.0 0.04 0.08 0.07 86 1011.1
20260506160840 55 182 7.0 18.0 0.02 0.06 0.06 86 1011.1
20260506160548 56 208 11.0 18.0 0.02 0.07 0.06 85 1011.1
20260506160507 56 187 11.0 18.0 0.02 0.07 0.06 85 1011.0
20260506160419 56 173 8.0 18.0 0.02 0.07 0.06 85 1011.0
20260506160339 56 195 6.0 13.0 0.02 0.07 0.06 85 1011.0
20260506160258 56 163 6.0 13.0 0.02 0.07 0.06 85 1011.1
20260506160200 56 189 6.0 13.0 0.02 0.07 0.06 85 1011.2
20260506160052 56 183 4.0 10.0 0.02 0.07 0.06 85 1011.1
20260506155839 56 177 3.0 9.0 0.02 0.07 0.06 85 1011.1
20260506155759 57 168 3.0 5.0 0.02 0.07 0.06 85 1011.1
20260506155650 57 221 2.0 5.0 0.02 0.07 0.06 84 1011.1
20260506155534 57 193 2.0 10.0 0.02 0.07 0.06 83 1011.0
20260506155434 57 212 2.0 13.0 0.02 0.08 0.06 83 1011.0
20260506155407 64 332 8.0 12.0 0.00 0.18 0.03 60 1010.8
20260506155331 57 212 2.0 15.0 0.02 0.08 0.06 82 1011.0
20260506155230 58 208 2.0 15.0 0.02 0.08 0.06 81 1010.9
20260506155155 63 212 2.0 11.0 0.00 0.18 0.03 61 1010.9
20260506155129 58 303 2.0 15.0 0.02 0.08 0.06 79 1010.9
20260506155028 58 295 2.0 15.0 0.02 0.08 0.05 79 1010.9
20260506154926 58 255 2.0 15.0 0.02 0.08 0.05 77 1010.8
20260506154826 58 234 3.0 15.0 0.02 0.08 0.05 76 1010.8
20260506154724 59 295 6.0 15.0 0.02 0.09 0.05 75 1010.8
20260506154631 59 329 9.0 15.0 0.02 0.09 0.05 74 1010.8
20260506154549 59 310 9.0 15.0 0.01 0.09 0.04 73 1010.9
20260506154508 60 298 8.0 15.0 0.00 0.08 0.03 73 1010.8
20260506154420 60 325 9.0 12.0 0.00 0.09 0.03 71 1010.8
20260506154157 60 315 6.0 9.0 0.00 0.09 0.03 70 1010.8
20260506153926 60 312 5.0 9.0 0.00 0.10 0.03 70 1010.6
20260506153840 60 329 5.0 10.0 0.00 0.10 0.03 69 1010.6
20260506153759 60 341 4.0 10.0 0.00 0.11 0.03 69 1010.6
20260506153610 60 16 3.0 10.0 0.00 0.11 0.03 69 1010.7
20260506153521 60 316 3.0 10.0 0.00 0.12 0.03 70 1010.6
20260506153440 60 347 4.0 10.0 0.00 0.12 0.03 71 1010.6
20260506153353 60 344 4.0 10.0 0.00 0.12 0.03 70 1010.6
20260506153314 60 319 4.0 10.0 0.00 0.13 0.03 70 1010.6
20260506153230 60 319 6.0 10.0 0.00 0.13 0.03 70 1010.6
20260506153147 60 325 7.0 10.0 0.00 0.13 0.03 68 1010.6
20260506153106 60 315 6.0 10.0 0.00 0.13 0.03 68 1010.6
20260506153020 60 342 6.0 10.0 0.00 0.13 0.03 69 1010.6
20260506152938 60 347 7.0 13.0 0.00 0.13 0.03 69 1010.6
20260506152855 60 332 7.0 13.0 0.00 0.13 0.03 69 1010.6
20260506152813 60 11 6.0 13.0 0.00 0.13 0.03 69 1010.5
20260506152733 60 319 7.0 13.0 0.00 0.14 0.03 69 1010.6
20260506152507 60 319 6.0 16.0 0.00 0.15 0.03 69 1010.6
20260506152240 60 13 9.0 16.0 0.00 0.15 0.03 68 1010.6
20260506152013 60 304 8.0 16.0 0.00 0.16 0.03 68 1010.6
20260506151425 60 338 11.0 16.0 0.00 0.16 0.03 67 1010.5
20260506151146 61 313 11.0 16.0 0.00 0.16 0.03 66 1010.5
20260506151100 61 344 11.0 16.0 0.00 0.16 0.03 66 1010.5
20260506151020 61 21 10.0 16.0 0.00 0.17 0.03 65 1010.6
20260506150923 61 323 11.0 14.0 0.00 0.17 0.03 66 1010.5
20260506150840 61 321 10.0 14.0 0.00 0.17 0.03 64 1010.5
20260506150615 61 339 8.0 13.0 0.00 0.17 0.03 64 1010.4
20260506150403 62 319 9.0 16.0 0.00 0.18 0.03 62 1010.9
20260506150331 61 327 5.0 13.0 0.00 0.18 0.03 65 1010.4
20260506150251 62 279 9.0 14.0 0.00 0.18 0.03 64 1011.0
20260506150230 62 336 5.0 13.0 0.00 0.18 0.03 64 1010.4
20260506150150 62 50 5.0 13.0 0.00 0.18 0.03 63 1010.4
20260506150104 62 344 4.0 13.0 0.00 0.18 0.03 64 1010.4
20260506150011 62 26 4.0 13.0 0.00 0.18 0.03 64 1010.4
20260506145726 62 323 7.0 13.0 0.00 0.18 0.03 63 1010.4
20260506145646 62 17 6.0 10.0 0.00 0.18 0.03 65 1010.4
20260506145602 62 310 4.0 10.0 0.00 0.18 0.03 65 1010.4
20260506145349 62 16 6.0 11.0 0.00 0.18 0.03 65 1011.0
20260506145319 62 316 4.0 10.0 0.00 0.18 0.03 63 1010.4
20260506145254 62 15 6.0 11.0 0.00 0.18 0.03 63 1010.9
20260506145218 62 298 5.0 10.0 0.00 0.18 0.03 63 1010.4
20260506145117 62 344 6.0 10.0 0.00 0.18 0.03 65 1010.5
20260506145016 62 331 5.0 10.0 0.00 0.18 0.03 64 1010.4
20260506144916 62 289 4.0 9.0 0.00 0.18 0.03 63 1010.4
20260506144813 62 323 3.0 9.0 0.00 0.18 0.03 65 1010.4
20260506144712 62 291 5.0 9.0 0.00 0.18 0.03 65 1010.4
20260506144611 62 317 6.0 9.0 0.00 0.18 0.03 64 1010.4
20260506144516 62 288 5.0 9.0 0.00 0.18 0.03 64 1010.5
20260506144432 62 317 5.0 9.0 0.00 0.18 0.03 63 1010.4
20260506144349 62 330 6.0 9.0 0.00 0.18 0.03 63 1010.4
20260506144305 62 11 6.0 9.0 0.00 0.18 0.03 63 1010.5
20260506144221 62 29 6.0 11.0 0.00 0.18 0.03 63 1010.4
20260506143841 64 319 8.0 13.0 0.00 0.18 0.03 60 1010.9
20260506143757 62 288 4.0 11.0 0.00 0.18 0.03 63 1010.6
20260506143717 62 324 3.0 11.0 0.00 0.18 0.03 63 1010.5
20260506143634 62 306 4.0 11.0 0.00 0.18 0.03 63 1010.6
20260506143348 62 337 6.0 11.0 0.00 0.18 0.03 64 1010.6
20260506143249 62 307 6.0 11.0 0.00 0.18 0.03 61 1010.6
20260506143210 62 310 4.0 11.0 0.00 0.18 0.03 62 1010.6
20260506143128 62 294 5.0 13.0 0.00 0.18 0.03 63 1010.6
20260506142848 62 280 5.0 15.0 0.00 0.18 0.03 63 1010.7
20260506142743 62 301 6.0 15.0 0.00 0.18 0.03 63 1010.7
20260506142702 62 307 6.0 15.0 0.00 0.18 0.03 64 1010.7
20260506142616 62 301 7.0 15.0 0.00 0.18 0.03 63 1010.7
20260506142533 62 298 7.0 15.0 0.00 0.18 0.03 63 1010.7
20260506142451 62 347 9.0 15.0 0.00 0.18 0.03 62 1010.6
20260506142405 62 315 10.0 15.0 0.00 0.18 0.03 61 1010.8
20260506142325 62 298 10.0 15.0 0.00 0.18 0.03 62 1010.7
20260506142240 62 313 9.0 15.0 0.00 0.18 0.03 61 1010.7
20260506141632 62 338 5.0 10.0 0.00 0.18 0.03 61 1010.8
20260506141537 62 303 6.0 10.0 0.00 0.18 0.03 61 1010.8
20260506141454 62 279 4.0 10.0 0.00 0.18 0.03 63 1010.8
20260506141415 62 284 2.0 8.0 0.00 0.18 0.03 64 1010.8
20260506141330 62 265 2.0 9.0 0.00 0.18 0.03 64 1010.7
20260506141251 62 279 2.0 9.0 0.00 0.18 0.03 65 1010.8
20260506140814 62 317 3.0 11.0 0.00 0.18 0.03 62 1010.8
20260506140725 62 321 4.0 12.0 0.00 0.18 0.03 64 1010.8
20260506140610 62 288 5.0 12.0 0.00 0.18 0.03 63 1010.8
20260506140511 62 335 6.0 12.0 0.00 0.18 0.03 64 1010.8
20260506140426 62 310 6.0 12.0 0.00 0.18 0.03 64 1010.9
20260506140340 62 321 6.0 12.0 0.00 0.18 0.03 63 1010.8
20260506140259 62 327 7.0 12.0 0.00 0.18 0.03 63 1010.9